Time,TemperatureF,DewpointF,PressureIn,WindDirection,WindDirectionDegrees,WindSpeedMPH,WindSpeedGustMPH,Humidity,HourlyPrecipIn,Conditions,Clouds,dailyrainin,SolarRadiationWatts/m^2,SoftwareType,DateUTC
2013-01-31 00:02:00,6.7,-3.6,29.74,WNW,286,7.0,7.0,62,0.00,,,0.00,0,Wunderground v.1.15,2013-01-31 06:02:00,
2013-01-31 00:05:00,6.6,-3.3,29.74,West,273,7.0,7.0,63,0.00,,,0.00,0,Wunderground v.1.15,2013-01-31 06:05:00,
2013-01-31 00:07:00,6.6,-3.0,29.74,West,279,8.0,10.0,64,0.00,,,0.00,0,Wunderground v.1.15,2013-01-31 06:07:00,
2013-01-31 00:08:00,6.6,-3.0,29.74,West,275,7.0,10.0,64,0.00,,,0.00,0,Wunderground v.1.15,2013-01-31 06:08:00,
2013-01-31 00:09:00,6.6,-3.0,29.74,West,280,6.0,10.0,64,0.00,,,0.00,0,Wunderground v.1.15,2013-01-31 06:09:00,
2013-01-31 00:11:00,6.6,-2.7,29.74,West,281,7.0,7.0,65,0.00,,,0.00,0,Wunderground v.1.15,2013-01-31 06:11:00,
2013-01-31 00:16:00,6.4,-2.5,29.74,West,277,6.0,9.0,66,0.00,,,0.00,0,Wunderground v.1.15,2013-01-31 06:16:00,
2013-01-31 00:17:00,6.5,-2.5,29.74,West,274,6.0,9.0,66,0.00,,,0.00,0,Wunderground v.1.15,2013-01-31 06:17:00,
2013-01-31 00:18:00,6.4,-2.5,29.74,WNW,286,9.0,9.0,66,0.00,,,0.00,0,Wunderground v.1.15,2013-01-31 06:18:00,
2013-01-31 00:21:00,6.3,-2.3,29.74,WNW,286,10.0,10.0,67,0.00,,,0.00,0,Wunderground v.1.15,2013-01-31 06:21:00,
2013-01-31 00:24:00,6.3,-2.3,29.74,West,272,5.0,10.0,67,0.00,,,0.00,0,Wunderground v.1.15,2013-01-31 06:24:00,
2013-01-31 00:25:00,6.3,-2.3,29.74,West,278,7.0,10.0,67,0.00,,,0.00,0,Wunderground v.1.15,2013-01-31 06:25:00,
2013-01-31 00:27:00,6.3,-2.3,29.74,WNW,289,6.0,10.0,67,0.00,,,0.00,0,Wunderground v.1.15,2013-01-31 06:27:00,
2013-01-31 00:31:00,6.2,-2.1,29.74,WNW,296,9.0,9.0,68,0.00,,,0.00,0,Wunderground v.1.15,2013-01-31 06:31:00,
2013-01-31 00:32:00,6.1,-2.2,29.75,WNW,289,12.0,12.0,68,0.00,,,0.00,0,Wunderground v.1.15,2013-01-31 06:32:00,
2013-01-31 00:33:00,6.2,-2.1,29.74,West,280,12.0,12.0,68,0.00,,,0.00,0,Wunderground v.1.15,2013-01-31 06:33:00,
2013-01-31 00:36:00,6.0,-2.3,29.75,WNW,293,9.0,12.0,68,0.00,,,0.00,0,Wunderground v.1.15,2013-01-31 06:36:00,
2013-01-31 00:37:00,6.1,-2.2,29.75,West,259,4.0,12.0,68,0.00,,,0.00,0,Wunderground v.1.15,2013-01-31 06:37:00,
2013-01-31 00:38:00,6.0,-2.3,29.74,WNW,282,9.0,12.0,68,0.00,,,0.00,0,Wunderground v.1.15,2013-01-31 06:38:00,
2013-01-31 00:41:00,5.9,-2.4,29.75,WNW,286,10.0,12.0,68,0.00,,,0.00,0,Wunderground v.1.15,2013-01-31 06:41:00,
2013-01-31 00:42:00,5.8,-2.5,29.75,WNW,290,6.0,12.0,68,0.00,,,0.00,0,Wunderground v.1.15,2013-01-31 06:42:00,
2013-01-31 00:43:00,5.8,-2.5,29.75,WNW,290,7.0,12.0,68,0.00,,,0.00,0,Wunderground v.1.15,2013-01-31 06:43:00,
2013-01-31 00:44:00,5.8,-2.5,29.75,WNW,291,8.0,12.0,68,0.00,,,0.00,0,Wunderground v.1.15,2013-01-31 06:44:00,
2013-01-31 00:47:00,5.7,-2.6,29.75,West,279,4.0,12.0,68,0.00,,,0.00,0,Wunderground v.1.15,2013-01-31 06:47:00,
2013-01-31 00:49:00,5.6,-2.7,29.75,WNW,282,7.0,12.0,68,0.00,,,0.00,0,Wunderground v.1.15,2013-01-31 06:49:00,
2013-01-31 00:50:00,5.7,-2.6,29.75,West,271,6.0,6.0,68,0.00,,,0.00,0,Wunderground v.1.15,2013-01-31 06:50:00,
2013-01-31 00:53:00,5.4,-2.9,29.75,WNW,284,9.0,11.0,68,0.00,,,0.00,0,Wunderground v.1.15,2013-01-31 06:53:00,
2013-01-31 00:55:00,5.4,-2.9,29.75,West,266,10.0,11.0,68,0.00,,,0.00,0,Wunderground v.1.15,2013-01-31 06:55:00,
2013-01-31 00:57:00,5.3,-2.7,29.75,West,268,4.0,11.0,69,0.00,,,0.00,0,Wunderground v.1.15,2013-01-31 06:57:00,
2013-01-31 01:00:00,5.1,-2.9,29.76,West,276,7.0,7.0,69,0.00,,,0.00,0,Wunderground v.1.15,2013-01-31 07:00:00,
2013-01-31 01:01:00,5.2,-2.8,29.76,West,268,10.0,10.0,69,0.00,,,0.00,0,Wunderground v.1.15,2013-01-31 07:01:00,
2013-01-31 01:03:00,5.1,-2.9,29.76,West,278,8.0,10.0,69,0.00,,,0.00,0,Wunderground v.1.15,2013-01-31 07:03:00,
2013-01-31 01:06:00,5.0,-3.0,29.76,West,276,9.0,10.0,69,0.00,,,0.00,0,Wunderground v.1.15,2013-01-31 07:06:00,
2013-01-31 01:07:00,5.0,-3.0,29.76,West,279,4.0,10.0,69,0.00,,,0.00,0,Wunderground v.1.15,2013-01-31 07:07:00,
2013-01-31 01:08:00,4.9,-3.1,29.76,West,274,9.0,10.0,69,0.00,,,0.00,0,Wunderground v.1.15,2013-01-31 07:08:00,
2013-01-31 01:09:00,4.9,-3.1,29.76,WNW,284,10.0,10.0,69,0.00,,,0.00,0,Wunderground v.1.15,2013-01-31 07:09:00,
2013-01-31 01:12:00,4.8,-3.1,29.76,WNW,286,10.0,10.0,69,0.00,,,0.00,0,Wunderground v.1.15,2013-01-31 07:12:00,
2013-01-31 01:13:00,4.8,-3.5,29.76,WNW,293,15.0,15.0,68,0.00,,,0.00,0,Wunderground v.1.15,2013-01-31 07:13:00,
2013-01-31 01:14:00,4.8,-3.1,29.76,WNW,292,12.0,15.0,69,0.00,,,0.00,0,Wunderground v.1.15,2013-01-31 07:14:00,
2013-01-31 01:17:00,4.8,-3.5,29.76,WNW,282,6.0,15.0,68,0.00,,,0.00,0,Wunderground v.1.15,2013-01-31 07:17:00,
2013-01-31 01:19:00,4.7,-3.6,29.76,West,272,5.0,15.0,68,0.00,,,0.00,0,Wunderground v.1.15,2013-01-31 07:19:00,
2013-01-31 01:20:00,4.8,-3.5,29.76,West,277,8.0,8.0,68,0.00,,,0.00,0,Wunderground v.1.15,2013-01-31 07:20:00,
2013-01-31 01:21:00,4.8,-3.5,29.76,West,271,7.0,8.0,68,0.00,,,0.00,0,Wunderground v.1.15,2013-01-31 07:21:00,
2013-01-31 01:22:00,4.7,-3.6,29.76,WNW,291,9.0,9.0,68,0.00,,,0.00,0,Wunderground v.1.15,2013-01-31 07:22:00,
2013-01-31 01:25:00,4.7,-3.6,29.76,West,276,8.0,9.0,68,0.00,,,0.00,0,Wunderground v.1.15,2013-01-31 07:25:00,
2013-01-31 01:27:00,4.7,-3.6,29.76,West,281,6.0,9.0,68,0.00,,,0.00,0,Wunderground v.1.15,2013-01-31 07:27:00,
2013-01-31 01:31:00,4.7,-3.6,29.76,WNW,285,7.0,7.0,68,0.00,,,0.00,0,Wunderground v.1.15,2013-01-31 07:31:00,
2013-01-31 01:32:00,4.6,-3.6,29.76,West,281,6.0,7.0,68,0.00,,,0.00,0,Wunderground v.1.15,2013-01-31 07:32:00,
2013-01-31 01:33:00,4.7,-3.6,29.76,West,270,12.0,12.0,68,0.00,,,0.00,0,Wunderground v.1.15,2013-01-31 07:33:00,
2013-01-31 01:34:00,4.7,-3.6,29.76,WNW,289,11.0,12.0,68,0.00,,,0.00,0,Wunderground v.1.15,2013-01-31 07:34:00,
2013-01-31 01:39:00,4.7,-3.6,29.76,West,278,8.0,12.0,68,0.00,,,0.00,0,Wunderground v.1.15,2013-01-31 07:39:00,
2013-01-31 01:40:00,4.7,-3.6,29.76,West,276,8.0,8.0,68,0.00,,,0.00,0,Wunderground v.1.15,2013-01-31 07:40:00,
2013-01-31 01:41:00,4.7,-3.6,29.76,WNW,287,8.0,8.0,68,0.00,,,0.00,0,Wunderground v.1.15,2013-01-31 07:41:00,
2013-01-31 01:44:00,4.7,-3.9,29.76,WNW,296,10.0,12.0,67,0.00,,,0.00,0,Wunderground v.1.15,2013-01-31 07:44:00,
2013-01-31 01:46:00,4.7,-3.6,29.77,WNW,293,6.0,12.0,68,0.00,,,0.00,0,Wunderground v.1.15,2013-01-31 07:46:00,
2013-01-31 01:48:00,4.7,-3.9,29.76,West,268,9.0,12.0,67,0.00,,,0.00,0,Wunderground v.1.15,2013-01-31 07:48:00,
2013-01-31 01:50:00,4.8,-3.8,29.77,West,274,14.0,14.0,67,0.00,,,0.00,0,Wunderground v.1.15,2013-01-31 07:50:00,
2013-01-31 01:52:00,4.7,-3.9,29.77,West,274,9.0,17.0,67,0.00,,,0.00,0,Wunderground v.1.15,2013-01-31 07:52:00,
2013-01-31 01:53:00,4.8,-3.8,29.77,WNW,283,6.0,17.0,67,0.00,,,0.00,0,Wunderground v.1.15,2013-01-31 07:53:00,
2013-01-31 01:55:00,4.8,-3.8,29.77,West,281,9.0,17.0,67,0.00,,,0.00,0,Wunderground v.1.15,2013-01-31 07:55:00,
2013-01-31 01:58:00,4.8,-3.8,29.77,West,278,9.0,17.0,67,0.00,,,0.00,0,Wunderground v.1.15,2013-01-31 07:58:00,
2013-01-31 02:01:00,4.7,-3.9,29.77,WNW,292,9.0,9.0,67,0.00,,,0.00,0,Wunderground v.1.15,2013-01-31 08:01:00,
2013-01-31 02:03:00,4.8,-3.8,29.77,WNW,284,6.0,9.0,67,0.00,,,0.00,0,Wunderground v.1.15,2013-01-31 08:03:00,
2013-01-31 02:06:00,4.8,-3.8,29.77,WNW,284,8.0,12.0,67,0.00,,,0.00,0,Wunderground v.1.15,2013-01-31 08:06:00,
2013-01-31 02:07:00,4.8,-3.8,29.77,WNW,296,9.0,12.0,67,0.00,,,0.00,0,Wunderground v.1.15,2013-01-31 08:07:00,
2013-01-31 02:08:00,4.8,-3.8,29.77,WNW,282,7.0,12.0,67,0.00,,,0.00,0,Wunderground v.1.15,2013-01-31 08:08:00,
2013-01-31 02:11:00,4.8,-3.8,29.77,West,279,10.0,13.0,67,0.00,,,0.00,0,Wunderground v.1.15,2013-01-31 08:11:00,
2013-01-31 02:12:00,4.7,-4.2,29.77,WNW,282,9.0,13.0,66,0.00,,,0.00,0,Wunderground v.1.15,2013-01-31 08:12:00,
2013-01-31 02:13:00,4.7,-4.2,29.77,WNW,287,6.0,13.0,66,0.00,,,0.00,0,Wunderground v.1.15,2013-01-31 08:13:00,
2013-01-31 02:17:00,4.7,-4.2,29.77,WNW,298,8.0,19.0,66,0.00,,,0.00,0,Wunderground v.1.15,2013-01-31 08:17:00,
2013-01-31 02:19:00,4.6,-4.3,29.77,West,280,9.0,19.0,66,0.00,,,0.00,0,Wunderground v.1.15,2013-01-31 08:19:00,
2013-01-31 02:22:00,4.6,-4.3,29.78,West,274,8.0,16.0,66,0.00,,,0.00,0,Wunderground v.1.15,2013-01-31 08:22:00,
2013-01-31 02:24:00,4.6,-4.3,29.78,WNW,294,10.0,16.0,66,0.00,,,0.00,0,Wunderground v.1.15,2013-01-31 08:24:00,
2013-01-31 02:27:00,4.5,-4.4,29.78,WNW,286,10.0,16.0,66,0.00,,,0.00,0,Wunderground v.1.15,2013-01-31 08:27:00,
2013-01-31 02:29:00,4.4,-4.5,29.78,WNW,288,5.0,16.0,66,0.00,,,0.00,0,Wunderground v.1.15,2013-01-31 08:29:00,
2013-01-31 02:32:00,4.4,-4.8,29.78,WNW,299,13.0,15.0,65,0.00,,,0.00,0,Wunderground v.1.15,2013-01-31 08:32:00,
2013-01-31 02:34:00,4.4,-4.8,29.78,WNW,294,11.0,15.0,65,0.00,,,0.00,0,Wunderground v.1.15,2013-01-31 08:34:00,
2013-01-31 02:37:00,4.4,-4.5,29.78,WNW,288,8.0,15.0,66,0.00,,,0.00,0,Wunderground v.1.15,2013-01-31 08:37:00,
2013-01-31 02:38:00,4.3,-4.9,29.78,WNW,283,6.0,15.0,65,0.00,,,0.00,0,Wunderground v.1.15,2013-01-31 08:38:00,
2013-01-31 02:39:00,4.3,-4.9,29.77,WNW,295,8.0,15.0,65,0.00,,,0.00,0,Wunderground v.1.15,2013-01-31 08:39:00,
2013-01-31 02:42:00,4.3,-4.9,29.78,WNW,286,14.0,14.0,65,0.00,,,0.00,0,Wunderground v.1.15,2013-01-31 08:42:00,
2013-01-31 02:43:00,4.3,-4.9,29.77,WNW,285,9.0,15.0,65,0.00,,,0.00,0,Wunderground v.1.15,2013-01-31 08:43:00,
2013-01-31 02:44:00,4.2,-5.0,29.78,WNW,292,11.0,15.0,65,0.00,,,0.00,0,Wunderground v.1.15,2013-01-31 08:44:00,
2013-01-31 02:47:00,4.2,-5.0,29.78,West,276,4.0,15.0,65,0.00,,,0.00,0,Wunderground v.1.15,2013-01-31 08:47:00,
2013-01-31 02:48:00,4.2,-5.0,29.78,West,276,7.0,15.0,65,0.00,,,0.00,0,Wunderground v.1.15,2013-01-31 08:48:00,
2013-01-31 02:49:00,4.2,-5.0,29.78,WNW,289,11.0,15.0,65,0.00,,,0.00,0,Wunderground v.1.15,2013-01-31 08:49:00,
2013-01-31 02:53:00,4.2,-5.0,29.78,WNW,296,10.0,12.0,65,0.00,,,0.00,0,Wunderground v.1.15,2013-01-31 08:53:00,
2013-01-31 02:54:00,4.1,-5.1,29.78,WNW,302,9.0,13.0,65,0.00,,,0.00,0,Wunderground v.1.15,2013-01-31 08:54:00,
2013-01-31 02:58:00,4.0,-5.5,29.78,WNW,285,9.0,15.0,64,0.00,,,0.00,0,Wunderground v.1.15,2013-01-31 08:58:00,
2013-01-31 02:59:00,4.0,-5.2,29.78,WNW,292,10.0,15.0,65,0.00,,,0.00,0,Wunderground v.1.15,2013-01-31 08:59:00,
2013-01-31 03:03:00,4.0,-5.5,29.78,WNW,289,7.0,12.0,64,0.00,,,0.00,0,Wunderground v.1.15,2013-01-31 09:03:00,
2013-01-31 03:05:00,4.0,-5.5,29.78,WNW,283,7.0,12.0,64,0.00,,,0.00,0,Wunderground v.1.15,2013-01-31 09:05:00,
2013-01-31 03:08:00,4.0,-5.5,29.78,West,274,9.0,14.0,64,0.00,,,0.00,0,Wunderground v.1.15,2013-01-31 09:08:00,
2013-01-31 03:10:00,3.9,-5.6,29.78,WNW,282,10.0,14.0,64,0.00,,,0.00,0,Wunderground v.1.15,2013-01-31 09:10:00,
2013-01-31 03:13:00,3.8,-5.7,29.78,WNW,298,9.0,13.0,64,0.00,,,0.00,0,Wunderground v.1.15,2013-01-31 09:13:00,
2013-01-31 03:14:00,3.9,-5.3,29.78,WNW,291,9.0,13.0,65,0.00,,,0.00,0,Wunderground v.1.15,2013-01-31 09:14:00,
2013-01-31 03:15:00,3.8,-5.7,29.78,West,279,8.0,13.0,64,0.00,,,0.00,0,Wunderground v.1.15,2013-01-31 09:15:00,
2013-01-31 03:18:00,3.7,-5.8,29.78,WNW,289,11.0,13.0,64,0.00,,,0.00,0,Wunderground v.1.15,2013-01-31 09:18:00,
2013-01-31 03:19:00,3.8,-5.7,29.78,WNW,295,9.0,13.0,64,0.00,,,0.00,0,Wunderground v.1.15,2013-01-31 09:19:00,
2013-01-31 03:20:00,3.7,-5.8,29.78,WNW,288,8.0,8.0,64,0.00,,,0.00,0,Wunderground v.1.15,2013-01-31 09:20:00,
2013-01-31 03:23:00,3.7,-5.8,29.78,WNW,297,10.0,15.0,64,0.00,,,0.00,0,Wunderground v.1.15,2013-01-31 09:23:00,
2013-01-31 03:24:00,3.6,-5.9,29.78,WNW,300,11.0,15.0,64,0.00,,,0.00,0,Wunderground v.1.15,2013-01-31 09:24:00,
2013-01-31 03:25:00,3.7,-5.8,29.78,WNW,298,11.0,15.0,64,0.00,,,0.00,0,Wunderground v.1.15,2013-01-31 09:25:00,
2013-01-31 03:28:00,3.7,-5.8,29.78,WNW,303,9.0,15.0,64,0.00,,,0.00,0,Wunderground v.1.15,2013-01-31 09:28:00,
2013-01-31 03:29:00,3.7,-5.8,29.78,WNW,290,9.0,15.0,64,0.00,,,0.00,0,Wunderground v.1.15,2013-01-31 09:29:00,
2013-01-31 03:30:00,3.6,-5.9,29.78,WNW,295,7.0,7.0,64,0.00,,,0.00,0,Wunderground v.1.15,2013-01-31 09:30:00,
2013-01-31 03:34:00,3.6,-5.9,29.78,West,281,6.0,11.0,64,0.00,,,0.00,0,Wunderground v.1.15,2013-01-31 09:34:00,
2013-01-31 03:36:00,3.7,-5.8,29.78,NW,305,7.0,11.0,64,0.00,,,0.00,0,Wunderground v.1.15,2013-01-31 09:36:00,
2013-01-31 03:39:00,3.6,-5.9,29.78,WNW,289,8.0,12.0,64,0.00,,,0.00,0,Wunderground v.1.15,2013-01-31 09:39:00,
2013-01-31 03:40:00,3.6,-5.5,29.78,WNW,293,11.0,12.0,65,0.00,,,0.00,0,Wunderground v.1.15,2013-01-31 09:40:00,
2013-01-31 03:41:00,3.6,-5.9,29.78,West,271,5.0,9.0,64,0.00,,,0.00,0,Wunderground v.1.15,2013-01-31 09:41:00,
2013-01-31 03:44:00,3.5,-6.0,29.78,WNW,282,9.0,12.0,64,0.00,,,0.00,0,Wunderground v.1.15,2013-01-31 09:44:00,
2013-01-31 03:45:00,3.5,-6.0,29.78,West,276,5.0,12.0,64,0.00,,,0.00,0,Wunderground v.1.15,2013-01-31 09:45:00,
2013-01-31 03:46:00,3.5,-5.6,29.78,WNW,300,11.0,12.0,65,0.00,,,0.00,0,Wunderground v.1.15,2013-01-31 09:46:00,
2013-01-31 03:49:00,3.5,-6.0,29.78,West,271,11.0,17.0,64,0.00,,,0.00,0,Wunderground v.1.15,2013-01-31 09:49:00,
2013-01-31 03:50:00,3.4,-6.1,29.78,WNW,296,14.0,17.0,64,0.00,,,0.00,0,Wunderground v.1.15,2013-01-31 09:50:00,
2013-01-31 03:51:00,3.5,-6.0,29.78,West,277,9.0,12.0,64,0.00,,,0.00,0,Wunderground v.1.15,2013-01-31 09:51:00,
2013-01-31 03:54:00,3.4,-6.1,29.78,WNW,286,6.0,13.0,64,0.00,,,0.00,0,Wunderground v.1.15,2013-01-31 09:54:00,
2013-01-31 03:55:00,3.4,-6.1,29.78,WNW,295,7.0,13.0,64,0.00,,,0.00,0,Wunderground v.1.15,2013-01-31 09:55:00,
2013-01-31 03:56:00,3.5,-6.0,29.78,West,281,6.0,13.0,64,0.00,,,0.00,0,Wunderground v.1.15,2013-01-31 09:56:00,
2013-01-31 03:59:00,3.5,-6.0,29.79,WNW,291,9.0,13.0,64,0.00,,,0.00,0,Wunderground v.1.15,2013-01-31 09:59:00,
2013-01-31 04:00:00,3.4,-6.1,29.78,WNW,290,9.0,13.0,64,0.00,,,0.00,0,Wunderground v.1.15,2013-01-31 10:00:00,
2013-01-31 04:01:00,3.4,-6.1,29.78,WNW,293,7.0,10.0,64,0.00,,,0.00,0,Wunderground v.1.15,2013-01-31 10:01:00,
2013-01-31 04:05:00,3.4,-6.1,29.79,WNW,284,10.0,13.0,64,0.00,,,0.00,0,Wunderground v.1.15,2013-01-31 10:05:00,
2013-01-31 04:07:00,3.4,-6.1,29.79,WNW,284,8.0,13.0,64,0.00,,,0.00,0,Wunderground v.1.15,2013-01-31 10:07:00,
2013-01-31 04:10:00,3.3,-6.2,29.79,West,280,9.0,14.0,64,0.00,,,0.00,0,Wunderground v.1.15,2013-01-31 10:10:00,
2013-01-31 04:12:00,3.2,-6.2,29.79,West,278,7.0,10.0,64,0.00,,,0.00,0,Wunderground v.1.15,2013-01-31 10:12:00,
2013-01-31 04:15:00,3.1,-6.0,29.79,West,280,11.0,13.0,65,0.00,,,0.00,0,Wunderground v.1.15,2013-01-31 10:15:00,
2013-01-31 04:17:00,2.9,-6.2,29.80,WNW,283,10.0,15.0,65,0.00,,,0.00,0,Wunderground v.1.15,2013-01-31 10:17:00,
2013-01-31 04:20:00,2.6,-6.8,29.80,West,275,8.0,8.0,64,0.00,,,0.00,0,Wunderground v.1.15,2013-01-31 10:20:00,
2013-01-31 04:22:00,2.5,-6.6,29.80,WNW,289,13.0,14.0,65,0.00,,,0.00,0,Wunderground v.1.15,2013-01-31 10:22:00,
2013-01-31 04:25:00,2.4,-7.0,29.80,West,277,10.0,17.0,64,0.00,,,0.00,0,Wunderground v.1.15,2013-01-31 10:25:00,
2013-01-31 04:26:00,2.4,-7.0,29.80,West,271,8.0,17.0,64,0.00,,,0.00,0,Wunderground v.1.15,2013-01-31 10:26:00,
2013-01-31 04:27:00,2.3,-6.8,29.80,WNW,294,9.0,17.0,65,0.00,,,0.00,0,Wunderground v.1.15,2013-01-31 10:27:00,
2013-01-31 04:30:00,2.2,-6.9,29.80,West,276,8.0,10.0,65,0.00,,,0.00,0,Wunderground v.1.15,2013-01-31 10:30:00,
2013-01-31 04:31:00,2.3,-6.8,29.80,West,266,15.0,15.0,65,0.00,,,0.00,0,Wunderground v.1.15,2013-01-31 10:31:00,
2013-01-31 04:33:00,2.2,-6.9,29.80,WNW,285,9.0,16.0,65,0.00,,,0.00,0,Wunderground v.1.15,2013-01-31 10:33:00,
2013-01-31 04:35:00,2.2,-6.9,29.80,WNW,297,9.0,16.0,65,0.00,,,0.00,0,Wunderground v.1.15,2013-01-31 10:35:00,
2013-01-31 04:36:00,2.2,-6.9,29.80,WNW,297,8.0,16.0,65,0.00,,,0.00,0,Wunderground v.1.15,2013-01-31 10:36:00,
2013-01-31 04:38:00,2.2,-6.9,29.80,WNW,292,9.0,16.0,65,0.00,,,0.00,0,Wunderground v.1.15,2013-01-31 10:38:00,
2013-01-31 04:40:00,2.1,-7.0,29.80,West,277,8.0,8.0,65,0.00,,,0.00,0,Wunderground v.1.15,2013-01-31 10:40:00,
2013-01-31 04:41:00,2.1,-7.0,29.80,WNW,287,6.0,9.0,65,0.00,,,0.00,0,Wunderground v.1.15,2013-01-31 10:41:00,
2013-01-31 04:43:00,2.0,-7.1,29.81,West,272,12.0,15.0,65,0.00,,,0.00,0,Wunderground v.1.15,2013-01-31 10:43:00,
2013-01-31 04:45:00,2.0,-7.1,29.81,West,272,14.0,16.0,65,0.00,,,0.00,0,Wunderground v.1.15,2013-01-31 10:45:00,
2013-01-31 04:46:00,1.8,-7.3,29.81,West,280,9.0,16.0,65,0.00,,,0.00,0,Wunderground v.1.15,2013-01-31 10:46:00,
2013-01-31 04:48:00,1.9,-7.2,29.81,West,276,13.0,16.0,65,0.00,,,0.00,0,Wunderground v.1.15,2013-01-31 10:48:00,
2013-01-31 04:50:00,1.8,-7.3,29.81,West,277,8.0,14.0,65,0.00,,,0.00,0,Wunderground v.1.15,2013-01-31 10:50:00,
2013-01-31 04:51:00,1.9,-6.9,29.81,West,274,6.0,14.0,66,0.00,,,0.00,0,Wunderground v.1.15,2013-01-31 10:51:00,
2013-01-31 04:53:00,1.9,-6.9,29.81,West,271,5.0,14.0,66,0.00,,,0.00,0,Wunderground v.1.15,2013-01-31 10:53:00,
2013-01-31 04:55:00,1.9,-6.9,29.81,West,275,7.0,15.0,66,0.00,,,0.00,0,Wunderground v.1.15,2013-01-31 10:55:00,
2013-01-31 04:57:00,2.0,-6.8,29.81,WNW,292,8.0,15.0,66,0.00,,,0.00,0,Wunderground v.1.15,2013-01-31 10:57:00,
2013-01-31 04:58:00,1.9,-6.9,29.81,West,273,9.0,15.0,66,0.00,,,0.00,0,Wunderground v.1.15,2013-01-31 10:58:00,
2013-01-31 05:01:00,1.9,-6.9,29.81,WNW,283,11.0,12.0,66,0.00,,,0.00,0,Wunderground v.1.15,2013-01-31 11:01:00,
2013-01-31 05:02:00,1.8,-7.0,29.81,WNW,292,8.0,15.0,66,0.00,,,0.00,0,Wunderground v.1.15,2013-01-31 11:02:00,
2013-01-31 05:03:00,1.8,-7.0,29.81,West,278,9.0,15.0,66,0.00,,,0.00,0,Wunderground v.1.15,2013-01-31 11:03:00,
2013-01-31 05:06:00,1.8,-7.0,29.81,West,274,6.0,15.0,66,0.00,,,0.00,0,Wunderground v.1.15,2013-01-31 11:06:00,
2013-01-31 05:07:00,1.8,-7.0,29.81,WNW,290,8.0,15.0,66,0.00,,,0.00,0,Wunderground v.1.15,2013-01-31 11:07:00,
2013-01-31 05:09:00,1.7,-7.0,29.81,West,273,11.0,15.0,66,0.00,,,0.00,0,Wunderground v.1.15,2013-01-31 11:09:00,
2013-01-31 05:11:00,1.7,-7.0,29.81,West,275,9.0,13.0,66,0.00,,,0.00,0,Wunderground v.1.15,2013-01-31 11:11:00,
2013-01-31 05:12:00,1.6,-7.1,29.81,West,277,8.0,13.0,66,0.00,,,0.00,0,Wunderground v.1.15,2013-01-31 11:12:00,
2013-01-31 05:14:00,1.7,-7.0,29.81,WNW,294,6.0,13.0,66,0.00,,,0.00,0,Wunderground v.1.15,2013-01-31 11:14:00,
2013-01-31 05:16:00,1.7,-7.0,29.81,WNW,282,7.0,13.0,66,0.00,,,0.00,0,Wunderground v.1.15,2013-01-31 11:16:00,
2013-01-31 05:17:00,1.6,-7.1,29.81,West,278,11.0,13.0,66,0.00,,,0.00,0,Wunderground v.1.15,2013-01-31 11:17:00,
2013-01-31 05:19:00,1.6,-7.1,29.81,West,275,8.0,16.0,66,0.00,,,0.00,0,Wunderground v.1.15,2013-01-31 11:19:00,
2013-01-31 05:21:00,1.5,-7.2,29.81,West,281,9.0,12.0,66,0.00,,,0.00,0,Wunderground v.1.15,2013-01-31 11:21:00,
2013-01-31 05:22:00,1.6,-7.1,29.81,WNW,302,9.0,12.0,66,0.00,,,0.00,0,Wunderground v.1.15,2013-01-31 11:22:00,
2013-01-31 05:24:00,1.5,-7.2,29.81,WNW,293,8.0,12.0,66,0.00,,,0.00,0,Wunderground v.1.15,2013-01-31 11:24:00,
2013-01-31 05:26:00,1.6,-7.1,29.81,West,269,12.0,12.0,66,0.00,,,0.00,0,Wunderground v.1.15,2013-01-31 11:26:00,
2013-01-31 05:27:00,1.5,-7.2,29.81,West,277,8.0,12.0,66,0.00,,,0.00,0,Wunderground v.1.15,2013-01-31 11:27:00,
2013-01-31 05:29:00,1.4,-7.3,29.81,WNW,293,8.0,15.0,66,0.00,,,0.00,0,Wunderground v.1.15,2013-01-31 11:29:00,
2013-01-31 05:31:00,1.5,-7.2,29.82,West,275,5.0,12.0,66,0.00,,,0.00,0,Wunderground v.1.15,2013-01-31 11:31:00,
2013-01-31 05:33:00,1.5,-7.2,29.82,West,281,6.0,12.0,66,0.00,,,0.00,0,Wunderground v.1.15,2013-01-31 11:33:00,
2013-01-31 05:34:00,1.4,-7.3,29.82,WNW,296,12.0,16.0,66,0.00,,,0.00,0,Wunderground v.1.15,2013-01-31 11:34:00,
2013-01-31 05:37:00,1.4,-7.3,29.82,WNW,282,4.0,16.0,66,0.00,,,0.00,0,Wunderground v.1.15,2013-01-31 11:37:00,
2013-01-31 05:38:00,1.4,-7.3,29.82,WNW,290,14.0,16.0,66,0.00,,,0.00,0,Wunderground v.1.15,2013-01-31 11:38:00,
2013-01-31 05:40:00,1.3,-7.4,29.82,WNW,289,9.0,18.0,66,0.00,,,0.00,0,Wunderground v.1.15,2013-01-31 11:40:00,
2013-01-31 05:42:00,1.3,-7.4,29.82,WNW,283,10.0,19.0,66,0.00,,,0.00,0,Wunderground v.1.15,2013-01-31 11:42:00,
2013-01-31 05:43:00,1.2,-7.5,29.82,WNW,282,11.0,19.0,66,0.00,,,0.00,0,Wunderground v.1.15,2013-01-31 11:43:00,
2013-01-31 05:45:00,1.3,-7.4,29.82,West,276,10.0,19.0,66,0.00,,,0.00,0,Wunderground v.1.15,2013-01-31 11:45:00,
2013-01-31 05:47:00,1.1,-7.6,29.82,West,273,9.0,19.0,66,0.00,,,0.00,0,Wunderground v.1.15,2013-01-31 11:47:00,
2013-01-31 05:48:00,1.1,-7.6,29.82,WNW,285,7.0,19.0,66,0.00,,,0.00,0,Wunderground v.1.15,2013-01-31 11:48:00,
2013-01-31 05:50:00,1.1,-7.6,29.83,West,275,7.0,11.0,66,0.00,,,0.00,0,Wunderground v.1.15,2013-01-31 11:50:00,
2013-01-31 05:52:00,1.0,-7.7,29.83,West,267,8.0,12.0,66,0.00,,,0.00,0,Wunderground v.1.15,2013-01-31 11:52:00,
2013-01-31 05:53:00,1.0,-7.7,29.83,West,275,7.0,12.0,66,0.00,,,0.00,0,Wunderground v.1.15,2013-01-31 11:53:00,
2013-01-31 05:55:00,1.1,-7.6,29.83,WNW,282,12.0,13.0,66,0.00,,,0.00,0,Wunderground v.1.15,2013-01-31 11:55:00,
2013-01-31 05:57:00,1.1,-7.6,29.83,West,267,12.0,13.0,66,0.00,,,0.00,0,Wunderground v.1.15,2013-01-31 11:57:00,
2013-01-31 05:58:00,1.1,-7.6,29.83,West,265,11.0,15.0,66,0.00,,,0.00,0,Wunderground v.1.15,2013-01-31 11:58:00,
2013-01-31 06:00:00,1.0,-7.7,29.83,West,273,12.0,12.0,66,0.00,,,0.00,0,Wunderground v.1.15,2013-01-31 12:00:00,
2013-01-31 06:02:00,1.0,-7.7,29.83,West,265,10.0,14.0,66,0.00,,,0.00,0,Wunderground v.1.15,2013-01-31 12:02:00,
2013-01-31 06:03:00,1.1,-7.6,29.83,West,273,6.0,14.0,66,0.00,,,0.00,0,Wunderground v.1.15,2013-01-31 12:03:00,
2013-01-31 06:06:00,1.0,-7.7,29.84,WNW,282,9.0,14.0,66,0.00,,,0.00,0,Wunderground v.1.15,2013-01-31 12:06:00,
2013-01-31 06:07:00,0.9,-7.8,29.84,WNW,287,7.0,14.0,66,0.00,,,0.00,0,Wunderground v.1.15,2013-01-31 12:07:00,
2013-01-31 06:08:00,1.0,-7.7,29.84,WNW,292,7.0,14.0,66,0.00,,,0.00,0,Wunderground v.1.15,2013-01-31 12:08:00,
2013-01-31 06:11:00,1.1,-7.6,29.84,WNW,294,6.0,9.0,66,0.00,,,0.00,0,Wunderground v.1.15,2013-01-31 12:11:00,
2013-01-31 06:12:00,1.1,-7.6,29.84,West,274,8.0,11.0,66,0.00,,,0.00,0,Wunderground v.1.15,2013-01-31 12:12:00,
2013-01-31 06:13:00,1.0,-7.7,29.84,WNW,283,6.0,11.0,66,0.00,,,0.00,0,Wunderground v.1.15,2013-01-31 12:13:00,
2013-01-31 06:16:00,1.0,-7.7,29.84,WNW,283,9.0,11.0,66,0.00,,,0.00,0,Wunderground v.1.15,2013-01-31 12:16:00,
2013-01-31 06:17:00,0.9,-7.8,29.84,West,279,8.0,11.0,66,0.00,,,0.00,0,Wunderground v.1.15,2013-01-31 12:17:00,
2013-01-31 06:18:00,1.0,-7.7,29.84,West,276,6.0,11.0,66,0.00,,,0.00,0,Wunderground v.1.15,2013-01-31 12:18:00,
2013-01-31 06:19:00,0.9,-7.8,29.84,West,269,12.0,12.0,66,0.00,,,0.00,0,Wunderground v.1.15,2013-01-31 12:19:00,
2013-01-31 06:21:00,0.9,-7.8,29.85,West,273,8.0,14.0,66,0.00,,,0.00,0,Wunderground v.1.15,2013-01-31 12:21:00,
2013-01-31 06:23:00,0.8,-7.9,29.85,West,281,8.0,14.0,66,0.00,,,0.00,0,Wunderground v.1.15,2013-01-31 12:23:00,
2013-01-31 06:24:00,0.9,-7.8,29.85,WNW,284,7.0,14.0,66,0.00,,,0.00,0,Wunderground v.1.15,2013-01-31 12:24:00,
2013-01-31 06:27:00,0.9,-8.1,29.85,West,276,10.0,16.0,65,0.00,,,0.00,0,Wunderground v.1.15,2013-01-31 12:27:00,
2013-01-31 06:28:00,0.8,-7.9,29.85,West,275,10.0,16.0,66,0.00,,,0.00,0,Wunderground v.1.15,2013-01-31 12:28:00,
2013-01-31 06:29:00,0.7,-8.0,29.85,West,278,8.0,16.0,66,0.00,,,0.00,0,Wunderground v.1.15,2013-01-31 12:29:00,
2013-01-31 06:32:00,0.8,-8.2,29.85,West,280,6.0,11.0,65,0.00,,,0.00,0,Wunderground v.1.15,2013-01-31 12:32:00,
2013-01-31 06:33:00,0.8,-8.2,29.85,WNW,282,10.0,12.0,65,0.00,,,0.00,0,Wunderground v.1.15,2013-01-31 12:33:00,
2013-01-31 06:34:00,0.7,-8.3,29.85,West,268,7.0,12.0,65,0.00,,,0.00,0,Wunderground v.1.15,2013-01-31 12:34:00,
2013-01-31 06:37:00,0.7,-8.0,29.85,WNW,285,6.0,12.0,66,0.00,,,0.00,0,Wunderground v.1.15,2013-01-31 12:37:00,
2013-01-31 06:38:00,0.7,-8.0,29.86,West,268,9.0,12.0,66,0.00,,,0.00,0,Wunderground v.1.15,2013-01-31 12:38:00,
2013-01-31 06:39:00,0.7,-8.0,29.85,West,267,11.0,12.0,66,0.00,,,0.00,0,Wunderground v.1.15,2013-01-31 12:39:00,
2013-01-31 06:42:00,0.6,-8.4,29.86,West,273,10.0,15.0,65,0.00,,,0.00,0,Wunderground v.1.15,2013-01-31 12:42:00,
2013-01-31 06:43:00,0.6,-8.4,29.86,West,277,10.0,15.0,65,0.00,,,0.00,0,Wunderground v.1.15,2013-01-31 12:43:00,
2013-01-31 06:44:00,0.5,-8.5,29.86,WNW,284,6.0,15.0,65,0.00,,,0.00,0,Wunderground v.1.15,2013-01-31 12:44:00,
2013-01-31 06:47:00,0.5,-8.5,29.86,West,265,9.0,15.0,65,0.00,,,0.00,0,Wunderground v.1.15,2013-01-31 12:47:00,
2013-01-31 06:48:00,0.5,-8.5,29.86,West,281,9.0,15.0,65,0.00,,,0.00,0,Wunderground v.1.15,2013-01-31 12:48:00,
2013-01-31 06:49:00,0.5,-8.5,29.86,WNW,291,9.0,15.0,65,0.00,,,0.00,0,Wunderground v.1.15,2013-01-31 12:49:00,
2013-01-31 06:52:00,0.4,-8.6,29.86,WNW,295,10.0,16.0,65,0.00,,,0.00,0,Wunderground v.1.15,2013-01-31 12:52:00,
2013-01-31 06:53:00,0.4,-8.6,29.86,West,277,7.0,16.0,65,0.00,,,0.00,0,Wunderground v.1.15,2013-01-31 12:53:00,
2013-01-31 06:55:00,0.4,-8.6,29.86,West,272,14.0,16.0,65,0.00,,,0.00,0,Wunderground v.1.15,2013-01-31 12:55:00,
2013-01-31 06:57:00,0.4,-8.6,29.86,West,271,7.0,16.0,65,0.00,,,0.00,0,Wunderground v.1.15,2013-01-31 12:57:00,
2013-01-31 06:58:00,0.3,-8.7,29.86,WNW,291,12.0,16.0,65,0.00,,,0.00,0,Wunderground v.1.15,2013-01-31 12:58:00,
2013-01-31 07:00:00,0.4,-8.6,29.86,West,279,7.0,16.0,65,0.00,,,0.00,0,Wunderground v.1.15,2013-01-31 13:00:00,
2013-01-31 07:03:00,0.4,-8.6,29.86,West,275,8.0,13.0,65,0.00,,,0.00,0,Wunderground v.1.15,2013-01-31 13:03:00,
2013-01-31 07:04:00,0.3,-8.7,29.86,West,279,10.0,17.0,65,0.00,,,0.00,0,Wunderground v.1.15,2013-01-31 13:04:00,
2013-01-31 07:05:00,0.4,-8.6,29.86,WNW,284,9.0,17.0,65,0.00,,,0.00,0,Wunderground v.1.15,2013-01-31 13:05:00,
2013-01-31 07:08:00,0.3,-8.7,29.86,WNW,284,9.0,17.0,65,0.00,,,0.00,0,Wunderground v.1.15,2013-01-31 13:08:00,
2013-01-31 07:09:00,0.2,-8.8,29.86,WNW,283,8.0,17.0,65,0.00,,,0.00,0,Wunderground v.1.15,2013-01-31 13:09:00,
2013-01-31 07:10:00,0.2,-8.8,29.86,WNW,282,5.0,17.0,65,0.00,,,0.00,0,Wunderground v.1.15,2013-01-31 13:10:00,
2013-01-31 07:13:00,0.2,-8.8,29.87,WNW,295,9.0,17.0,65,0.00,,,0.00,0,Wunderground v.1.15,2013-01-31 13:13:00,
2013-01-31 07:14:00,0.2,-8.8,29.87,WNW,284,9.0,17.0,65,0.00,,,0.00,0,Wunderground v.1.15,2013-01-31 13:14:00,
2013-01-31 07:15:00,0.1,-8.9,29.87,WNW,293,9.0,17.0,65,0.00,,,0.00,0,Wunderground v.1.15,2013-01-31 13:15:00,
2013-01-31 07:18:00,0.0,-9.0,29.87,West,278,8.0,17.0,65,0.00,,,0.00,0,Wunderground v.1.15,2013-01-31 13:18:00,
2013-01-31 07:19:00,0.1,-8.9,29.87,West,276,7.0,17.0,65,0.00,,,0.00,0,Wunderground v.1.15,2013-01-31 13:19:00,
2013-01-31 07:20:00,0.1,-8.9,29.87,West,272,11.0,16.0,65,0.00,,,0.00,0,Wunderground v.1.15,2013-01-31 13:20:00,
2013-01-31 07:23:00,-0.2,-9.2,29.87,West,281,10.0,16.0,65,0.00,,,0.00,0,Wunderground v.1.15,2013-01-31 13:23:00,
2013-01-31 07:24:00,-0.2,-9.2,29.87,West,280,7.0,16.0,65,0.00,,,0.00,0,Wunderground v.1.15,2013-01-31 13:24:00,
2013-01-31 07:26:00,-0.3,-9.3,29.87,West,278,8.0,16.0,65,0.00,,,0.00,0,Wunderground v.1.15,2013-01-31 13:26:00,
2013-01-31 07:28:00,-0.3,-9.3,29.88,West,279,8.0,16.0,65,0.00,,,0.00,0,Wunderground v.1.15,2013-01-31 13:28:00,
2013-01-31 07:29:00,-0.4,-9.4,29.87,West,270,9.0,16.0,65,0.00,,,0.00,0,Wunderground v.1.15,2013-01-31 13:29:00,
2013-01-31 07:30:00,-0.5,-9.5,29.87,WNW,286,7.0,16.0,65,0.00,,,0.00,0,Wunderground v.1.15,2013-01-31 13:30:00,
2013-01-31 07:31:00,-0.6,-9.6,29.87,WNW,285,7.0,11.0,65,0.00,,,0.00,0,Wunderground v.1.15,2013-01-31 13:31:00,
2013-01-31 07:33:00,-0.7,-9.7,29.88,West,268,14.0,14.0,65,0.00,,,0.00,0,Wunderground v.1.15,2013-01-31 13:33:00,
2013-01-31 07:34:00,-0.6,-9.6,29.88,West,278,8.0,16.0,65,0.00,,,0.00,0,Wunderground v.1.15,2013-01-31 13:34:00,
2013-01-31 07:35:00,-0.7,-9.3,29.88,West,274,7.0,16.0,66,0.00,,,0.00,0,Wunderground v.1.15,2013-01-31 13:35:00,
2013-01-31 07:36:00,-0.8,-9.4,29.88,WNW,295,10.0,16.0,66,0.00,,,0.00,0,Wunderground v.1.15,2013-01-31 13:36:00,
2013-01-31 07:38:00,-0.7,-9.3,29.88,West,273,10.0,16.0,66,0.00,,,0.00,0,Wunderground v.1.15,2013-01-31 13:38:00,
2013-01-31 07:39:00,-0.8,-9.4,29.88,WNW,292,8.0,16.0,66,0.00,,,0.00,0,Wunderground v.1.15,2013-01-31 13:39:00,
2013-01-31 07:40:00,-0.7,-9.3,29.88,WNW,287,7.0,7.0,66,0.00,,,0.00,0,Wunderground v.1.15,2013-01-31 13:40:00,
2013-01-31 07:41:00,-0.7,-9.3,29.88,West,271,9.0,9.0,66,0.00,,,0.00,0,Wunderground v.1.15,2013-01-31 13:41:00,
2013-01-31 07:43:00,-0.6,-9.3,29.88,WNW,285,10.0,16.0,66,0.00,,,0.00,0,Wunderground v.1.15,2013-01-31 13:43:00,
2013-01-31 07:44:00,-0.7,-9.3,29.88,West,265,11.0,16.0,66,0.00,,,0.00,0,Wunderground v.1.15,2013-01-31 13:44:00,
2013-01-31 07:45:00,-0.8,-9.4,29.88,WNW,287,8.0,16.0,66,0.00,,,0.00,0,Wunderground v.1.15,2013-01-31 13:45:00,
2013-01-31 07:47:00,-0.7,-9.3,29.88,West,277,11.0,16.0,66,0.00,,,0.00,0,Wunderground v.1.15,2013-01-31 13:47:00,
2013-01-31 07:49:00,-0.7,-9.3,29.88,WNW,289,8.0,16.0,66,0.00,,,0.00,0,Wunderground v.1.15,2013-01-31 13:49:00,
2013-01-31 07:50:00,-0.6,-9.3,29.88,West,278,7.0,8.0,66,0.00,,,0.00,0,Wunderground v.1.15,2013-01-31 13:50:00,
2013-01-31 07:52:00,-0.7,-9.3,29.88,WNW,289,10.0,11.0,66,0.00,,,0.00,0,Wunderground v.1.15,2013-01-31 13:52:00,
2013-01-31 07:54:00,-0.7,-9.3,29.88,WNW,293,9.0,12.0,66,0.00,,,0.00,0,Wunderground v.1.15,2013-01-31 13:54:00,
2013-01-31 07:55:00,-0.8,-9.4,29.88,West,279,12.0,13.0,66,0.00,,,0.00,0,Wunderground v.1.15,2013-01-31 13:55:00,
2013-01-31 07:57:00,-0.8,-9.4,29.88,WNW,289,8.0,13.0,66,0.00,,,0.00,0,Wunderground v.1.15,2013-01-31 13:57:00,
2013-01-31 07:59:00,-0.7,-9.3,29.88,WNW,294,10.0,13.0,66,0.00,,,0.00,0,Wunderground v.1.15,2013-01-31 13:59:00,
2013-01-31 08:01:00,-0.8,-9.4,29.88,WNW,295,11.0,13.0,66,0.00,,,0.00,0,Wunderground v.1.15,2013-01-31 14:01:00,
2013-01-31 08:02:00,-0.8,-9.4,29.89,WNW,289,9.0,13.0,66,0.00,,,0.00,0,Wunderground v.1.15,2013-01-31 14:02:00,
2013-01-31 08:04:00,-0.8,-9.4,29.89,West,277,7.0,18.0,66,0.00,,,0.00,0,Wunderground v.1.15,2013-01-31 14:04:00,
2013-01-31 08:06:00,-0.8,-9.4,29.89,WNW,282,12.0,18.0,66,0.00,,,0.00,0,Wunderground v.1.15,2013-01-31 14:06:00,
2013-01-31 08:08:00,-0.9,-9.8,29.89,West,280,8.0,18.0,65,0.00,,,0.00,0,Wunderground v.1.15,2013-01-31 14:08:00,
2013-01-31 08:09:00,-0.8,-9.8,29.89,WNW,294,10.0,18.0,65,0.00,,,0.00,0,Wunderground v.1.15,2013-01-31 14:09:00,
2013-01-31 08:11:00,-1.0,-9.9,29.89,West,272,10.0,16.0,65,0.00,,,0.00,0,Wunderground v.1.15,2013-01-31 14:11:00,
2013-01-31 08:13:00,-1.0,-9.9,29.89,WNW,283,9.0,16.0,65,0.00,,,0.00,0,Wunderground v.1.15,2013-01-31 14:13:00,
2013-01-31 08:14:00,-1.0,-10.3,29.89,WNW,289,8.0,16.0,64,0.00,,,0.00,0,Wunderground v.1.15,2013-01-31 14:14:00,
2013-01-31 08:15:00,-1.0,-9.9,29.89,WNW,297,10.0,16.0,65,0.00,,,0.00,0,Wunderground v.1.15,2013-01-31 14:15:00,
2013-01-31 08:16:00,-1.0,-9.9,29.89,WNW,288,8.0,16.0,65,0.00,,,0.00,0,Wunderground v.1.15,2013-01-31 14:16:00,
2013-01-31 08:18:00,-1.0,-9.9,29.89,WNW,289,11.0,16.0,65,0.00,,,0.00,0,Wunderground v.1.15,2013-01-31 14:18:00,
2013-01-31 08:19:00,-1.1,-10.4,29.90,West,275,12.0,16.0,64,0.00,,,0.00,0,Wunderground v.1.15,2013-01-31 14:19:00,
2013-01-31 08:20:00,-1.1,-10.4,29.90,West,281,8.0,16.0,64,0.00,,,0.00,0,Wunderground v.1.15,2013-01-31 14:20:00,
2013-01-31 08:21:00,-1.1,-10.4,29.90,WNW,291,10.0,12.0,64,0.00,,,0.00,0,Wunderground v.1.15,2013-01-31 14:21:00,
2013-01-31 08:23:00,-1.1,-10.4,29.90,WNW,285,7.0,14.0,64,0.00,,,0.00,0,Wunderground v.1.15,2013-01-31 14:23:00,
2013-01-31 08:24:00,-1.0,-10.3,29.90,WNW,289,10.0,14.0,64,0.00,,,0.00,0,Wunderground v.1.15,2013-01-31 14:24:00,
2013-01-31 08:25:00,-1.1,-10.4,29.90,West,271,9.0,14.0,64,0.00,,,0.00,0,Wunderground v.1.15,2013-01-31 14:25:00,
2013-01-31 08:26:00,-1.1,-10.4,29.90,WNW,283,7.0,14.0,64,0.00,,,0.00,0,Wunderground v.1.15,2013-01-31 14:26:00,
2013-01-31 08:28:00,-1.0,-10.3,29.90,WNW,284,10.0,16.0,64,0.00,,,0.00,0,Wunderground v.1.15,2013-01-31 14:28:00,
2013-01-31 08:29:00,-1.1,-10.4,29.90,WNW,290,7.0,16.0,64,0.00,,,0.00,0,Wunderground v.1.15,2013-01-31 14:29:00,
2013-01-31 08:30:00,-1.1,-10.4,29.90,WNW,295,9.0,16.0,64,0.00,,,0.00,0,Wunderground v.1.15,2013-01-31 14:30:00,
2013-01-31 08:32:00,-1.1,-10.4,29.91,West,279,7.0,13.0,64,0.00,,,0.00,0,Wunderground v.1.15,2013-01-31 14:32:00,
2013-01-31 08:33:00,-1.1,-10.4,29.90,WNW,284,8.0,14.0,64,0.00,,,0.00,0,Wunderground v.1.15,2013-01-31 14:33:00,
2013-01-31 08:34:00,-1.1,-10.7,29.90,West,274,6.0,15.0,63,0.00,,,0.00,0,Wunderground v.1.15,2013-01-31 14:34:00,
2013-01-31 08:35:00,-1.1,-10.7,29.91,West,276,9.0,15.0,63,0.00,,,0.00,0,Wunderground v.1.15,2013-01-31 14:35:00,
2013-01-31 08:37:00,-1.1,-10.7,29.91,WNW,284,8.0,15.0,63,0.00,,,0.00,0,Wunderground v.1.15,2013-01-31 14:37:00,
2013-01-31 08:38:00,-1.1,-10.7,29.91,West,271,6.0,15.0,63,0.00,,,0.00,0,Wunderground v.1.15,2013-01-31 14:38:00,
2013-01-31 08:40:00,-1.2,-10.8,29.91,West,273,5.0,15.0,63,0.00,,,0.00,0,Wunderground v.1.15,2013-01-31 14:40:00,
2013-01-31 08:42:00,-1.2,-10.8,29.91,WNW,288,11.0,13.0,63,0.00,,,0.00,0,Wunderground v.1.15,2013-01-31 14:42:00,
2013-01-31 08:43:00,-1.1,-10.7,29.91,WNW,293,11.0,16.0,63,0.00,,,0.00,0,Wunderground v.1.15,2013-01-31 14:43:00,
2013-01-31 08:45:00,-1.2,-10.8,29.91,WNW,282,14.0,16.0,63,0.00,,,0.00,0,Wunderground v.1.15,2013-01-31 14:45:00,
2013-01-31 08:47:00,-1.2,-10.8,29.91,West,279,8.0,16.0,63,0.00,,,0.00,0,Wunderground v.1.15,2013-01-31 14:47:00,
2013-01-31 08:48:00,-1.2,-10.8,29.91,West,269,13.0,17.0,63,0.00,,,0.00,0,Wunderground v.1.15,2013-01-31 14:48:00,
2013-01-31 08:50:00,-1.2,-10.8,29.91,WNW,295,10.0,11.0,63,0.00,,,0.00,0,Wunderground v.1.15,2013-01-31 14:50:00,
2013-01-31 08:52:00,-1.3,-11.2,29.91,WNW,286,11.0,14.0,62,0.00,,,0.00,0,Wunderground v.1.15,2013-01-31 14:52:00,
2013-01-31 08:53:00,-1.3,-10.9,29.91,West,274,8.0,14.0,63,0.00,,,0.00,0,Wunderground v.1.15,2013-01-31 14:53:00,
2013-01-31 08:55:00,-1.4,-11.3,29.91,West,273,10.0,14.0,62,0.00,,,0.00,0,Wunderground v.1.15,2013-01-31 14:55:00,
2013-01-31 08:56:00,-1.4,-11.3,29.92,West,275,6.0,14.0,62,0.00,,,0.00,0,Wunderground v.1.15,2013-01-31 14:56:00,
2013-01-31 08:57:00,-1.4,-11.3,29.92,West,280,15.0,15.0,62,0.00,,,0.00,0,Wunderground v.1.15,2013-01-31 14:57:00,
2013-01-31 08:58:00,-1.5,-11.4,29.92,West,281,11.0,16.0,62,0.00,,,0.00,0,Wunderground v.1.15,2013-01-31 14:58:00,
2013-01-31 09:01:00,-1.5,-11.7,29.92,West,278,9.0,17.0,61,0.00,,,0.00,0,Wunderground v.1.15,2013-01-31 15:01:00,
2013-01-31 09:02:00,-1.6,-11.5,29.92,WNW,287,10.0,17.0,62,0.00,,,0.00,0,Wunderground v.1.15,2013-01-31 15:02:00,
2013-01-31 09:03:00,-1.6,-11.5,29.92,WNW,292,10.0,17.0,62,0.00,,,0.00,0,Wunderground v.1.15,2013-01-31 15:03:00,
2013-01-31 09:06:00,-1.5,-11.7,29.93,West,276,9.0,17.0,61,0.00,,,0.00,0,Wunderground v.1.15,2013-01-31 15:06:00,
2013-01-31 09:07:00,-1.6,-11.8,29.92,WNW,292,9.0,17.0,61,0.00,,,0.00,0,Wunderground v.1.15,2013-01-31 15:07:00,
2013-01-31 09:08:00,-1.7,-11.9,29.93,WNW,296,10.0,17.0,61,0.00,,,0.00,0,Wunderground v.1.15,2013-01-31 15:08:00,
2013-01-31 09:11:00,-1.7,-11.9,29.93,WNW,282,13.0,14.0,61,0.00,,,0.00,0,Wunderground v.1.15,2013-01-31 15:11:00,
2013-01-31 09:12:00,-1.7,-11.9,29.93,WNW,292,9.0,14.0,61,0.00,,,0.00,0,Wunderground v.1.15,2013-01-31 15:12:00,
2013-01-31 09:13:00,-1.6,-11.8,29.93,WNW,284,9.0,14.0,61,0.00,,,0.00,0,Wunderground v.1.15,2013-01-31 15:13:00,
2013-01-31 09:16:00,-1.5,-11.7,29.93,West,280,5.0,14.0,61,0.00,,,0.00,0,Wunderground v.1.15,2013-01-31 15:16:00,
2013-01-31 09:17:00,-1.5,-11.7,29.93,West,276,12.0,16.0,61,0.00,,,0.00,0,Wunderground v.1.15,2013-01-31 15:17:00,
2013-01-31 09:18:00,-1.6,-11.8,29.93,WNW,286,8.0,16.0,61,0.00,,,0.00,0,Wunderground v.1.15,2013-01-31 15:18:00,
2013-01-31 09:21:00,-1.7,-11.9,29.93,WNW,293,14.0,14.0,61,0.00,,,0.00,0,Wunderground v.1.15,2013-01-31 15:21:00,
2013-01-31 09:22:00,-1.6,-11.8,29.93,West,267,13.0,18.0,61,0.00,,,0.00,0,Wunderground v.1.15,2013-01-31 15:22:00,
2013-01-31 09:23:00,-1.7,-11.9,29.93,West,279,11.0,21.0,61,0.00,,,0.00,0,Wunderground v.1.15,2013-01-31 15:23:00,
2013-01-31 09:26:00,-1.8,-12.3,29.93,WNW,285,11.0,21.0,60,0.00,,,0.00,0,Wunderground v.1.15,2013-01-31 15:26:00,
2013-01-31 09:27:00,-1.8,-12.3,29.93,WNW,282,10.0,21.0,60,0.00,,,0.00,0,Wunderground v.1.15,2013-01-31 15:27:00,
2013-01-31 09:28:00,-1.7,-11.9,29.93,WNW,295,9.0,21.0,61,0.00,,,0.00,0,Wunderground v.1.15,2013-01-31 15:28:00,
2013-01-31 09:31:00,-1.7,-11.9,29.94,WNW,287,14.0,14.0,61,0.00,,,0.00,0,Wunderground v.1.15,2013-01-31 15:31:00,
2013-01-31 09:32:00,-1.7,-11.9,29.93,West,278,11.0,15.0,61,0.00,,,0.00,0,Wunderground v.1.15,2013-01-31 15:32:00,
2013-01-31 09:34:00,-1.7,-12.2,29.94,WNW,291,11.0,15.0,60,0.00,,,0.00,0,Wunderground v.1.15,2013-01-31 15:34:00,
2013-01-31 09:36:00,-1.7,-12.2,29.94,West,275,13.0,16.0,60,0.00,,,0.00,0,Wunderground v.1.15,2013-01-31 15:36:00,
2013-01-31 09:37:00,-1.8,-12.3,29.94,West,270,10.0,16.0,60,0.00,,,0.00,0,Wunderground v.1.15,2013-01-31 15:37:00,
2013-01-31 09:38:00,-1.7,-11.9,29.94,WNW,292,11.0,16.0,61,0.00,,,0.00,0,Wunderground v.1.15,2013-01-31 15:38:00,
2013-01-31 09:39:00,-1.8,-12.3,29.94,West,267,13.0,16.0,60,0.00,,,0.00,0,Wunderground v.1.15,2013-01-31 15:39:00,
2013-01-31 09:42:00,-1.8,-12.3,29.95,WNW,289,8.0,13.0,60,0.00,,,0.00,0,Wunderground v.1.15,2013-01-31 15:42:00,
2013-01-31 09:43:00,-1.8,-12.0,29.95,NW,312,7.0,13.0,61,0.00,,,0.00,0,Wunderground v.1.15,2013-01-31 15:43:00,
2013-01-31 09:44:00,-1.8,-12.0,29.95,WNW,290,9.0,13.0,61,0.00,,,0.00,0,Wunderground v.1.15,2013-01-31 15:44:00,
2013-01-31 09:47:00,-1.8,-12.3,29.95,WNW,285,6.0,16.0,60,0.00,,,0.00,0,Wunderground v.1.15,2013-01-31 15:47:00,
2013-01-31 09:48:00,-1.8,-12.3,29.95,WNW,292,8.0,16.0,60,0.00,,,0.00,0,Wunderground v.1.15,2013-01-31 15:48:00,
2013-01-31 09:49:00,-1.6,-11.8,29.95,West,270,7.0,16.0,61,0.00,,,0.00,0,Wunderground v.1.15,2013-01-31 15:49:00,
2013-01-31 09:52:00,-1.7,-12.2,29.95,WNW,296,11.0,13.0,60,0.00,,,0.00,0,Wunderground v.1.15,2013-01-31 15:52:00,
2013-01-31 09:53:00,-1.7,-12.2,29.96,West,272,5.0,13.0,60,0.00,,,0.00,0,Wunderground v.1.15,2013-01-31 15:53:00,
2013-01-31 09:54:00,-1.8,-12.3,29.96,WNW,282,10.0,13.0,60,0.00,,,0.00,0,Wunderground v.1.15,2013-01-31 15:54:00,
2013-01-31 09:57:00,-1.7,-12.2,29.96,West,279,7.0,14.0,60,0.00,,,0.00,0,Wunderground v.1.15,2013-01-31 15:57:00,
2013-01-31 09:58:00,-1.7,-12.2,29.96,WNW,285,7.0,14.0,60,0.00,,,0.00,0,Wunderground v.1.15,2013-01-31 15:58:00,
2013-01-31 10:00:00,-1.7,-12.2,29.96,West,281,7.0,16.0,60,0.00,,,0.00,0,Wunderground v.1.15,2013-01-31 16:00:00,
2013-01-31 10:02:00,-1.6,-12.1,29.96,WNW,299,16.0,17.0,60,0.00,,,0.00,0,Wunderground v.1.15,2013-01-31 16:02:00,
2013-01-31 10:03:00,-1.7,-12.2,29.96,WNW,289,9.0,17.0,60,0.00,,,0.00,0,Wunderground v.1.15,2013-01-31 16:03:00,
2013-01-31 10:05:00,-1.7,-12.6,29.96,West,271,9.0,17.0,59,0.00,,,0.00,0,Wunderground v.1.15,2013-01-31 16:05:00,
2013-01-31 10:07:00,-1.7,-12.6,29.96,WNW,283,12.0,17.0,59,0.00,,,0.00,0,Wunderground v.1.15,2013-01-31 16:07:00,
2013-01-31 10:08:00,-1.7,-12.6,29.96,WNW,288,13.0,17.0,59,0.00,,,0.00,0,Wunderground v.1.15,2013-01-31 16:08:00,
2013-01-31 10:10:00,-1.7,-12.6,29.96,West,276,14.0,17.0,59,0.00,,,0.00,0,Wunderground v.1.15,2013-01-31 16:10:00,
2013-01-31 10:12:00,-1.8,-12.7,29.96,West,277,8.0,18.0,59,0.00,,,0.00,0,Wunderground v.1.15,2013-01-31 16:12:00,
2013-01-31 10:13:00,-1.8,-12.7,29.96,WNW,287,10.0,18.0,59,0.00,,,0.00,0,Wunderground v.1.15,2013-01-31 16:13:00,
2013-01-31 10:15:00,-1.7,-12.6,29.97,WNW,293,10.0,18.0,59,0.00,,,0.00,0,Wunderground v.1.15,2013-01-31 16:15:00,
2013-01-31 10:18:00,-1.8,-12.7,29.97,West,280,9.0,19.0,59,0.00,,,0.00,0,Wunderground v.1.15,2013-01-31 16:18:00,
2013-01-31 10:19:00,-1.7,-12.6,29.97,WNW,288,12.0,19.0,59,0.00,,,0.00,0,Wunderground v.1.15,2013-01-31 16:19:00,
2013-01-31 10:20:00,-1.9,-13.1,29.97,WNW,295,10.0,19.0,58,0.00,,,0.00,0,Wunderground v.1.15,2013-01-31 16:20:00,
2013-01-31 10:23:00,-1.7,-12.6,29.97,West,269,10.0,15.0,59,0.00,,,0.00,0,Wunderground v.1.15,2013-01-31 16:23:00,
2013-01-31 10:24:00,-1.7,-12.9,29.97,West,278,10.0,15.0,58,0.00,,,0.00,0,Wunderground v.1.15,2013-01-31 16:24:00,
2013-01-31 10:25:00,-1.7,-12.9,29.97,West,281,9.0,15.0,58,0.00,,,0.00,0,Wunderground v.1.15,2013-01-31 16:25:00,
2013-01-31 10:28:00,-1.6,-12.8,29.97,WNW,293,14.0,17.0,58,0.00,,,0.00,0,Wunderground v.1.15,2013-01-31 16:28:00,
2013-01-31 10:29:00,-1.6,-12.8,29.97,WNW,295,11.0,17.0,58,0.00,,,0.00,0,Wunderground v.1.15,2013-01-31 16:29:00,
2013-01-31 10:30:00,-1.6,-12.8,29.97,WNW,296,10.0,12.0,58,0.00,,,0.00,0,Wunderground v.1.15,2013-01-31 16:30:00,
2013-01-31 10:33:00,-1.5,-12.7,29.97,WNW,289,8.0,15.0,58,0.00,,,0.00,0,Wunderground v.1.15,2013-01-31 16:33:00,
2013-01-31 10:34:00,-1.4,-12.6,29.97,WNW,295,10.0,15.0,58,0.00,,,0.00,0,Wunderground v.1.15,2013-01-31 16:34:00,
2013-01-31 10:35:00,-1.6,-12.8,29.97,WNW,293,7.0,17.0,58,0.00,,,0.00,0,Wunderground v.1.15,2013-01-31 16:35:00,
2013-01-31 10:38:00,-1.8,-13.0,29.98,WNW,292,12.0,17.0,58,0.00,,,0.00,0,Wunderground v.1.15,2013-01-31 16:38:00,
2013-01-31 10:39:00,-1.8,-13.0,29.98,WNW,282,6.0,17.0,58,0.00,,,0.00,0,Wunderground v.1.15,2013-01-31 16:39:00,
2013-01-31 10:41:00,-1.7,-12.9,29.98,WNW,298,10.0,14.0,58,0.00,,,0.00,0,Wunderground v.1.15,2013-01-31 16:41:00,
2013-01-31 10:43:00,-1.8,-13.0,29.98,West,281,9.0,15.0,58,0.00,,,0.00,0,Wunderground v.1.15,2013-01-31 16:43:00,
2013-01-31 10:44:00,-1.8,-13.0,29.98,WNW,285,10.0,15.0,58,0.00,,,0.00,0,Wunderground v.1.15,2013-01-31 16:44:00,
2013-01-31 10:46:00,-1.7,-12.9,29.98,WNW,286,8.0,15.0,58,0.00,,,0.00,0,Wunderground v.1.15,2013-01-31 16:46:00,
2013-01-31 10:49:00,-1.3,-12.2,29.98,West,266,8.0,15.0,59,0.00,,,0.00,0,Wunderground v.1.15,2013-01-31 16:49:00,
2013-01-31 10:51:00,-1.4,-12.3,29.98,West,276,12.0,19.0,59,0.00,,,0.00,0,Wunderground v.1.15,2013-01-31 16:51:00,
2013-01-31 10:54:00,-1.3,-12.2,29.98,WNW,288,5.0,19.0,59,0.00,,,0.00,0,Wunderground v.1.15,2013-01-31 16:54:00,
2013-01-31 10:56:00,-1.3,-12.5,29.98,WNW,285,7.0,19.0,58,0.00,,,0.00,0,Wunderground v.1.15,2013-01-31 16:56:00,
2013-01-31 10:59:00,-1.1,-12.3,29.98,WNW,297,11.0,19.0,58,0.00,,,0.00,0,Wunderground v.1.15,2013-01-31 16:59:00,
2013-01-31 11:01:00,-1.2,-12.4,29.98,WNW,296,10.0,15.0,58,0.00,,,0.00,0,Wunderground v.1.15,2013-01-31 17:01:00,
2013-01-31 11:04:00,-1.1,-12.3,29.99,WNW,299,10.0,17.0,58,0.00,,,0.00,0,Wunderground v.1.15,2013-01-31 17:04:00,
2013-01-31 11:07:00,-1.2,-12.8,29.99,West,275,13.0,19.0,57,0.00,,,0.00,0,Wunderground v.1.15,2013-01-31 17:07:00,
2013-01-31 11:09:00,-1.3,-12.9,29.99,West,276,11.0,19.0,57,0.00,,,0.00,0,Wunderground v.1.15,2013-01-31 17:09:00,
2013-01-31 11:10:00,-1.3,-12.9,29.99,WNW,282,11.0,19.0,57,0.00,,,0.00,0,Wunderground v.1.15,2013-01-31 17:10:00,
2013-01-31 11:12:00,-1.3,-12.9,29.98,WNW,282,13.0,18.0,57,0.00,,,0.00,0,Wunderground v.1.15,2013-01-31 17:12:00,
2013-01-31 11:14:00,-1.4,-13.0,29.99,WNW,289,11.0,18.0,57,0.00,,,0.00,0,Wunderground v.1.15,2013-01-31 17:14:00,
2013-01-31 11:15:00,-1.4,-13.0,29.99,WNW,291,9.0,18.0,57,0.00,,,0.00,0,Wunderground v.1.15,2013-01-31 17:15:00,
2013-01-31 11:18:00,-1.4,-13.0,29.99,West,267,16.0,18.0,57,0.00,,,0.00,0,Wunderground v.1.15,2013-01-31 17:18:00,
2013-01-31 11:19:00,-1.3,-12.9,29.99,West,280,14.0,18.0,57,0.00,,,0.00,0,Wunderground v.1.15,2013-01-31 17:19:00,
2013-01-31 11:20:00,-1.5,-13.1,29.99,West,275,12.0,18.0,57,0.00,,,0.00,0,Wunderground v.1.15,2013-01-31 17:20:00,
2013-01-31 11:23:00,-1.1,-12.3,29.99,West,278,14.0,15.0,58,0.00,,,0.00,0,Wunderground v.1.15,2013-01-31 17:23:00,
2013-01-31 11:25:00,-1.3,-12.5,29.99,WNW,286,9.0,17.0,58,0.00,,,0.00,0,Wunderground v.1.15,2013-01-31 17:25:00,
2013-01-31 11:28:00,-1.2,-12.4,29.99,West,274,13.0,19.0,58,0.00,,,0.00,0,Wunderground v.1.15,2013-01-31 17:28:00,
2013-01-31 11:30:00,-1.4,-12.6,29.99,West,280,7.0,21.0,58,0.00,,,0.00,0,Wunderground v.1.15,2013-01-31 17:30:00,
2013-01-31 11:33:00,-1.3,-12.5,29.99,WNW,284,10.0,20.0,58,0.00,,,0.00,0,Wunderground v.1.15,2013-01-31 17:33:00,
2013-01-31 11:35:00,-1.2,-12.1,29.99,WNW,283,13.0,20.0,59,0.00,,,0.00,0,Wunderground v.1.15,2013-01-31 17:35:00,
2013-01-31 11:38:00,-1.1,-12.3,29.99,West,275,10.0,20.0,58,0.00,,,0.00,0,Wunderground v.1.15,2013-01-31 17:38:00,
2013-01-31 11:40:00,-1.0,-12.2,29.99,WNW,282,14.0,20.0,58,0.00,,,0.00,0,Wunderground v.1.15,2013-01-31 17:40:00,
2013-01-31 11:41:00,-1.0,-12.2,29.99,WNW,291,13.0,16.0,58,0.00,,,0.00,0,Wunderground v.1.15,2013-01-31 17:41:00,
2013-01-31 11:43:00,-0.8,-11.7,29.99,West,268,16.0,16.0,59,0.00,,,0.00,0,Wunderground v.1.15,2013-01-31 17:43:00,
2013-01-31 11:45:00,-0.8,-12.1,29.99,West,281,9.0,17.0,58,0.00,,,0.00,0,Wunderground v.1.15,2013-01-31 17:45:00,
2013-01-31 11:46:00,-0.8,-12.1,29.99,West,275,14.0,17.0,58,0.00,,,0.00,0,Wunderground v.1.15,2013-01-31 17:46:00,
2013-01-31 11:48:00,-1.0,-12.2,29.99,WNW,284,9.0,17.0,58,0.00,,,0.00,0,Wunderground v.1.15,2013-01-31 17:48:00,
2013-01-31 11:50:00,-0.9,-11.8,29.99,WNW,284,10.0,17.0,59,0.00,,,0.00,0,Wunderground v.1.15,2013-01-31 17:50:00,
2013-01-31 11:51:00,-1.0,-11.9,29.99,West,265,19.0,21.0,59,0.00,,,0.00,0,Wunderground v.1.15,2013-01-31 17:51:00,
2013-01-31 11:53:00,-1.2,-12.1,29.99,West,281,14.0,21.0,59,0.00,,,0.00,0,Wunderground v.1.15,2013-01-31 17:53:00,
2013-01-31 11:55:00,-1.2,-12.1,29.99,West,269,10.0,21.0,59,0.00,,,0.00,0,Wunderground v.1.15,2013-01-31 17:55:00,
2013-01-31 11:56:00,-1.1,-11.7,30.00,WNW,299,10.0,21.0,60,0.00,,,0.00,0,Wunderground v.1.15,2013-01-31 17:56:00,
2013-01-31 11:58:00,-0.9,-11.5,30.00,WNW,285,11.0,21.0,60,0.00,,,0.00,0,Wunderground v.1.15,2013-01-31 17:58:00,
2013-01-31 12:00:00,-0.8,-11.4,30.00,WNW,287,12.0,15.0,60,0.00,,,0.00,0,Wunderground v.1.15,2013-01-31 18:00:00,
2013-01-31 12:01:00,-0.9,-11.5,29.99,WNW,298,11.0,15.0,60,0.00,,,0.00,0,Wunderground v.1.15,2013-01-31 18:01:00,
2013-01-31 12:03:00,-0.8,-11.4,30.00,West,277,10.0,21.0,60,0.00,,,0.00,0,Wunderground v.1.15,2013-01-31 18:03:00,
2013-01-31 12:05:00,-0.7,-11.3,30.00,WNW,294,10.0,21.0,60,0.00,,,0.00,0,Wunderground v.1.15,2013-01-31 18:05:00,
2013-01-31 12:06:00,-0.7,-11.6,30.00,WNW,298,8.0,21.0,59,0.00,,,0.00,0,Wunderground v.1.15,2013-01-31 18:06:00,
2013-01-31 12:07:00,-0.7,-11.6,30.00,WNW,298,14.0,21.0,59,0.00,,,0.00,0,Wunderground v.1.15,2013-01-31 18:07:00,
2013-01-31 12:09:00,-0.7,-11.3,30.00,West,274,9.0,21.0,60,0.00,,,0.00,0,Wunderground v.1.15,2013-01-31 18:09:00,
2013-01-31 12:10:00,-0.6,-11.2,30.00,West,277,7.0,11.0,60,0.00,,,0.00,0,Wunderground v.1.15,2013-01-31 18:10:00,
2013-01-31 12:11:00,-0.5,-11.1,30.00,WNW,286,11.0,12.0,60,0.00,,,0.00,0,Wunderground v.1.15,2013-01-31 18:11:00,
2013-01-31 12:12:00,-0.4,-11.0,30.00,WNW,286,8.0,12.0,60,0.00,,,0.00,0,Wunderground v.1.15,2013-01-31 18:12:00,
2013-01-31 12:14:00,-0.3,-10.9,30.00,West,276,17.0,17.0,60,0.00,,,0.00,0,Wunderground v.1.15,2013-01-31 18:14:00,
2013-01-31 12:16:00,-0.5,-11.4,30.00,West,278,11.0,21.0,59,0.00,,,0.00,0,Wunderground v.1.15,2013-01-31 18:16:00,
2013-01-31 12:17:00,-0.6,-11.9,30.00,West,271,16.0,22.0,58,0.00,,,0.00,0,Wunderground v.1.15,2013-01-31 18:17:00,
2013-01-31 12:19:00,-0.5,-11.8,30.00,West,279,9.0,22.0,58,0.00,,,0.00,0,Wunderground v.1.15,2013-01-31 18:19:00,
2013-01-31 12:21:00,-0.6,-11.9,30.00,West,281,14.0,14.0,58,0.00,,,0.00,0,Wunderground v.1.15,2013-01-31 18:21:00,
2013-01-31 12:22:00,-0.5,-11.8,30.00,West,272,14.0,14.0,58,0.00,,,0.00,0,Wunderground v.1.15,2013-01-31 18:22:00,
2013-01-31 12:24:00,-0.4,-11.7,30.00,WNW,295,10.0,14.0,58,0.00,,,0.00,0,Wunderground v.1.15,2013-01-31 18:24:00,
2013-01-31 12:26:00,-0.1,-11.4,30.00,WNW,286,12.0,15.0,58,0.00,,,0.00,0,Wunderground v.1.15,2013-01-31 18:26:00,
2013-01-31 12:27:00,0.0,-11.3,30.00,WNW,294,11.0,15.0,58,0.00,,,0.00,0,Wunderground v.1.15,2013-01-31 18:27:00,
2013-01-31 12:29:00,0.2,-11.1,30.00,West,277,8.0,15.0,58,0.00,,,0.00,0,Wunderground v.1.15,2013-01-31 18:29:00,
2013-01-31 12:31:00,0.4,-11.3,30.00,West,278,11.0,17.0,57,0.00,,,0.00,0,Wunderground v.1.15,2013-01-31 18:31:00,
2013-01-31 12:32:00,0.3,-11.4,30.01,WNW,295,14.0,17.0,57,0.00,,,0.00,0,Wunderground v.1.15,2013-01-31 18:32:00,
2013-01-31 12:34:00,0.1,-11.6,30.00,WNW,287,13.0,17.0,57,0.00,,,0.00,0,Wunderground v.1.15,2013-01-31 18:34:00,
2013-01-31 12:37:00,0.3,-11.4,30.01,WNW,285,10.0,19.0,57,0.00,,,0.00,0,Wunderground v.1.15,2013-01-31 18:37:00,
2013-01-31 12:38:00,0.2,-11.5,30.00,WNW,285,10.0,19.0,57,0.00,,,0.00,0,Wunderground v.1.15,2013-01-31 18:38:00,
2013-01-31 12:39:00,0.0,-11.6,30.00,WNW,295,10.0,19.0,57,0.00,,,0.00,0,Wunderground v.1.15,2013-01-31 18:39:00,
2013-01-31 12:42:00,-0.1,-11.7,30.01,West,280,12.0,18.0,57,0.00,,,0.00,0,Wunderground v.1.15,2013-01-31 18:42:00,
2013-01-31 12:43:00,-0.1,-11.7,30.01,West,270,17.0,18.0,57,0.00,,,0.00,0,Wunderground v.1.15,2013-01-31 18:43:00,
2013-01-31 12:44:00,-0.1,-11.4,30.01,NW,306,11.0,19.0,58,0.00,,,0.00,0,Wunderground v.1.15,2013-01-31 18:44:00,
2013-01-31 12:47:00,0.0,-11.3,30.00,WNW,290,13.0,19.0,58,0.00,,,0.00,0,Wunderground v.1.15,2013-01-31 18:47:00,
2013-01-31 12:48:00,-0.1,-11.4,30.01,West,271,14.0,19.0,58,0.00,,,0.00,0,Wunderground v.1.15,2013-01-31 18:48:00,
2013-01-31 12:49:00,0.0,-11.3,30.01,WNW,287,17.0,19.0,58,0.00,,,0.00,0,Wunderground v.1.15,2013-01-31 18:49:00,
2013-01-31 12:52:00,-0.1,-11.4,30.01,WNW,284,10.0,18.0,58,0.00,,,0.00,0,Wunderground v.1.15,2013-01-31 18:52:00,
2013-01-31 12:53:00,-0.1,-11.4,30.01,WNW,283,19.0,19.0,58,0.00,,,0.00,0,Wunderground v.1.15,2013-01-31 18:53:00,
2013-01-31 12:55:00,-0.2,-11.5,30.01,WNW,291,9.0,21.0,58,0.00,,,0.00,0,Wunderground v.1.15,2013-01-31 18:55:00,
2013-01-31 12:57:00,-0.2,-11.1,30.01,WNW,282,18.0,21.0,59,0.00,,,0.00,0,Wunderground v.1.15,2013-01-31 18:57:00,
2013-01-31 12:58:00,-0.2,-11.1,30.01,West,281,12.0,21.0,59,0.00,,,0.00,0,Wunderground v.1.15,2013-01-31 18:58:00,
2013-01-31 13:00:00,-0.3,-11.2,30.01,WNW,285,13.0,13.0,59,0.00,,,0.00,0,Wunderground v.1.15,2013-01-31 19:00:00,
2013-01-31 13:02:00,0.0,-11.0,30.01,WNW,297,16.0,16.0,59,0.00,,,0.00,0,Wunderground v.1.15,2013-01-31 19:02:00,
2013-01-31 13:03:00,-0.1,-11.0,30.01,WNW,285,14.0,16.0,59,0.00,,,0.00,0,Wunderground v.1.15,2013-01-31 19:03:00,
2013-01-31 13:05:00,-0.2,-11.1,30.01,WNW,301,11.0,17.0,59,0.00,,,0.00,0,Wunderground v.1.15,2013-01-31 19:05:00,
2013-01-31 13:07:00,-0.1,-11.0,30.01,WNW,282,11.0,17.0,59,0.00,,,0.00,0,Wunderground v.1.15,2013-01-31 19:07:00,
2013-01-31 13:08:00,-0.1,-11.0,30.01,WNW,284,14.0,17.0,59,0.00,,,0.00,0,Wunderground v.1.15,2013-01-31 19:08:00,
2013-01-31 13:10:00,-0.3,-11.6,30.01,West,281,9.0,11.0,58,0.00,,,0.00,0,Wunderground v.1.15,2013-01-31 19:10:00,
2013-01-31 13:12:00,-0.1,-11.4,30.02,WNW,296,15.0,15.0,58,0.00,,,0.00,0,Wunderground v.1.15,2013-01-31 19:12:00,
2013-01-31 13:13:00,-0.1,-11.4,30.02,West,275,13.0,18.0,58,0.00,,,0.00,0,Wunderground v.1.15,2013-01-31 19:13:00,
2013-01-31 13:15:00,-0.4,-11.7,30.02,WNW,286,9.0,19.0,58,0.00,,,0.00,0,Wunderground v.1.15,2013-01-31 19:15:00,
2013-01-31 13:17:00,-0.4,-11.7,30.02,WNW,293,13.0,19.0,58,0.00,,,0.00,0,Wunderground v.1.15,2013-01-31 19:17:00,
2013-01-31 13:18:00,-0.3,-11.2,30.02,WNW,287,11.0,19.0,59,0.00,,,0.00,0,Wunderground v.1.15,2013-01-31 19:18:00,
2013-01-31 13:20:00,-0.4,-11.3,30.02,WNW,289,14.0,20.0,59,0.00,,,0.00,0,Wunderground v.1.15,2013-01-31 19:20:00,
2013-01-31 13:22:00,-0.4,-11.3,30.02,WNW,293,11.0,20.0,59,0.00,,,0.00,0,Wunderground v.1.15,2013-01-31 19:22:00,
2013-01-31 13:23:00,-0.3,-11.2,30.02,West,272,16.0,20.0,59,0.00,,,0.00,0,Wunderground v.1.15,2013-01-31 19:23:00,
2013-01-31 13:25:00,-0.2,-11.1,30.02,WNW,298,9.0,20.0,59,0.00,,,0.00,0,Wunderground v.1.15,2013-01-31 19:25:00,
2013-01-31 13:27:00,-0.2,-11.1,30.02,WNW,290,7.0,20.0,59,0.00,,,0.00,0,Wunderground v.1.15,2013-01-31 19:27:00,
2013-01-31 13:28:00,0.0,-11.0,30.02,WNW,295,12.0,20.0,59,0.00,,,0.00,0,Wunderground v.1.15,2013-01-31 19:28:00,
2013-01-31 13:30:00,0.3,-10.7,30.02,WNW,286,18.0,19.0,59,0.00,,,0.00,0,Wunderground v.1.15,2013-01-31 19:30:00,
2013-01-31 13:32:00,0.3,-10.7,30.02,WNW,283,10.0,19.0,59,0.00,,,0.00,0,Wunderground v.1.15,2013-01-31 19:32:00,
2013-01-31 13:33:00,0.4,-10.6,30.02,WNW,288,16.0,19.0,59,0.00,,,0.00,0,Wunderground v.1.15,2013-01-31 19:33:00,
2013-01-31 13:36:00,0.3,-11.0,30.03,WNW,285,14.0,20.0,58,0.00,,,0.00,0,Wunderground v.1.15,2013-01-31 19:36:00,
2013-01-31 13:37:00,0.1,-11.2,30.03,WNW,297,9.0,20.0,58,0.00,,,0.00,0,Wunderground v.1.15,2013-01-31 19:37:00,
2013-01-31 13:38:00,0.1,-10.9,30.03,West,281,10.0,20.0,59,0.00,,,0.00,0,Wunderground v.1.15,2013-01-31 19:38:00,
2013-01-31 13:39:00,0.2,-11.1,30.03,West,261,6.0,20.0,58,0.00,,,0.00,0,Wunderground v.1.15,2013-01-31 19:39:00,
2013-01-31 13:41:00,0.1,-10.9,30.03,WNW,283,9.0,18.0,59,0.00,,,0.00,0,Wunderground v.1.15,2013-01-31 19:41:00,
2013-01-31 13:42:00,0.1,-10.9,30.03,WNW,293,10.0,18.0,59,0.00,,,0.00,0,Wunderground v.1.15,2013-01-31 19:42:00,
2013-01-31 13:43:00,0.2,-10.8,30.03,West,281,10.0,18.0,59,0.00,,,0.00,0,Wunderground v.1.15,2013-01-31 19:43:00,
2013-01-31 13:44:00,0.3,-10.7,30.03,WNW,285,15.0,18.0,59,0.00,,,0.00,0,Wunderground v.1.15,2013-01-31 19:44:00,
2013-01-31 13:46:00,0.2,-10.8,30.03,WNW,292,15.0,18.0,59,0.00,,,0.00,0,Wunderground v.1.15,2013-01-31 19:46:00,
2013-01-31 13:47:00,0.2,-10.8,30.03,WNW,289,12.0,18.0,59,0.00,,,0.00,0,Wunderground v.1.15,2013-01-31 19:47:00,
2013-01-31 13:48:00,0.1,-11.2,30.03,WNW,295,14.0,18.0,58,0.00,,,0.00,0,Wunderground v.1.15,2013-01-31 19:48:00,
2013-01-31 13:49:00,0.1,-11.2,30.03,WNW,291,10.0,18.0,58,0.00,,,0.00,0,Wunderground v.1.15,2013-01-31 19:49:00,
2013-01-31 13:51:00,0.1,-10.9,30.03,West,277,11.0,14.0,59,0.00,,,0.00,0,Wunderground v.1.15,2013-01-31 19:51:00,
2013-01-31 13:52:00,0.0,-11.0,30.03,WNW,302,13.0,17.0,59,0.00,,,0.00,0,Wunderground v.1.15,2013-01-31 19:52:00,
2013-01-31 13:53:00,0.1,-10.9,30.03,West,273,10.0,17.0,59,0.00,,,0.00,0,Wunderground v.1.15,2013-01-31 19:53:00,
2013-01-31 13:54:00,0.1,-10.9,30.03,WNW,282,13.0,17.0,59,0.00,,,0.00,0,Wunderground v.1.15,2013-01-31 19:54:00,
2013-01-31 13:56:00,0.0,-11.0,30.03,West,279,12.0,21.0,59,0.00,,,0.00,0,Wunderground v.1.15,2013-01-31 19:56:00,
2013-01-31 13:57:00,0.0,-11.0,30.03,West,276,14.0,21.0,59,0.00,,,0.00,0,Wunderground v.1.15,2013-01-31 19:57:00,
2013-01-31 13:59:00,0.0,-11.3,30.03,West,272,14.0,21.0,58,0.00,,,0.00,0,Wunderground v.1.15,2013-01-31 19:59:00,
2013-01-31 14:01:00,-0.2,-11.5,30.03,WNW,293,16.0,20.0,58,0.00,,,0.00,0,Wunderground v.1.15,2013-01-31 20:01:00,
2013-01-31 14:03:00,-0.1,-11.4,30.03,WNW,285,15.0,20.0,58,0.00,,,0.00,0,Wunderground v.1.15,2013-01-31 20:03:00,
2013-01-31 14:04:00,-0.2,-11.5,30.03,WNW,294,17.0,20.0,58,0.00,,,0.00,0,Wunderground v.1.15,2013-01-31 20:04:00,
2013-01-31 14:06:00,-0.3,-11.6,30.03,WNW,291,6.0,21.0,58,0.00,,,0.00,0,Wunderground v.1.15,2013-01-31 20:06:00,
2013-01-31 14:08:00,-0.3,-11.6,30.03,WNW,290,7.0,21.0,58,0.00,,,0.00,0,Wunderground v.1.15,2013-01-31 20:08:00,
2013-01-31 14:09:00,0.0,-11.3,30.03,WNW,283,8.0,21.0,58,0.00,,,0.00,0,Wunderground v.1.15,2013-01-31 20:09:00,
2013-01-31 14:10:00,0.0,-11.0,30.03,West,274,11.0,21.0,59,0.00,,,0.00,0,Wunderground v.1.15,2013-01-31 20:10:00,
2013-01-31 14:11:00,0.0,-11.0,30.03,WNW,296,9.0,14.0,59,0.00,,,0.00,0,Wunderground v.1.15,2013-01-31 20:11:00,
2013-01-31 14:13:00,0.2,-10.8,30.03,WNW,283,10.0,14.0,59,0.00,,,0.00,0,Wunderground v.1.15,2013-01-31 20:13:00,
2013-01-31 14:14:00,0.2,-10.8,30.03,WNW,285,9.0,14.0,59,0.00,,,0.00,0,Wunderground v.1.15,2013-01-31 20:14:00,
2013-01-31 14:15:00,0.1,-10.9,30.03,West,274,11.0,15.0,59,0.00,,,0.00,0,Wunderground v.1.15,2013-01-31 20:15:00,
2013-01-31 14:16:00,0.1,-10.9,30.03,WNW,282,7.0,17.0,59,0.00,,,0.00,0,Wunderground v.1.15,2013-01-31 20:16:00,
2013-01-31 14:18:00,0.1,-10.9,30.04,WNW,289,9.0,17.0,59,0.00,,,0.00,0,Wunderground v.1.15,2013-01-31 20:18:00,
2013-01-31 14:19:00,0.2,-10.8,30.04,WNW,292,9.0,17.0,59,0.00,,,0.00,0,Wunderground v.1.15,2013-01-31 20:19:00,
2013-01-31 14:20:00,0.2,-10.8,30.04,NW,306,11.0,12.0,59,0.00,,,0.00,0,Wunderground v.1.15,2013-01-31 20:20:00,
2013-01-31 14:22:00,0.4,-10.6,30.04,WNW,293,14.0,14.0,59,0.00,,,0.00,0,Wunderground v.1.15,2013-01-31 20:22:00,
2013-01-31 14:24:00,0.5,-10.5,30.04,WNW,297,8.0,14.0,59,0.00,,,0.00,0,Wunderground v.1.15,2013-01-31 20:24:00,
2013-01-31 14:25:00,0.6,-10.7,30.04,WNW,298,14.0,18.0,58,0.00,,,0.00,0,Wunderground v.1.15,2013-01-31 20:25:00,
2013-01-31 14:27:00,0.5,-10.8,30.04,WNW,296,10.0,18.0,58,0.00,,,0.00,0,Wunderground v.1.15,2013-01-31 20:27:00,
2013-01-31 14:29:00,0.5,-11.2,30.04,WNW,295,12.0,22.0,57,0.00,,,0.00,0,Wunderground v.1.15,2013-01-31 20:29:00,
2013-01-31 14:30:00,0.4,-11.3,30.04,WNW,297,11.0,18.0,57,0.00,,,0.00,0,Wunderground v.1.15,2013-01-31 20:30:00,
2013-01-31 14:32:00,0.3,-11.4,30.04,WNW,293,11.0,18.0,57,0.00,,,0.00,0,Wunderground v.1.15,2013-01-31 20:32:00,
2013-01-31 14:34:00,0.3,-11.7,30.04,WNW,282,10.0,18.0,56,0.00,,,0.00,0,Wunderground v.1.15,2013-01-31 20:34:00,
2013-01-31 14:35:00,0.3,-11.7,30.04,WNW,282,14.0,18.0,56,0.00,,,0.00,0,Wunderground v.1.15,2013-01-31 20:35:00,
2013-01-31 14:36:00,0.2,-12.2,30.04,West,281,11.0,18.0,55,0.00,,,0.00,0,Wunderground v.1.15,2013-01-31 20:36:00,
2013-01-31 14:37:00,0.2,-12.2,30.04,WNW,294,13.0,18.0,55,0.00,,,0.00,0,Wunderground v.1.15,2013-01-31 20:37:00,
2013-01-31 14:39:00,0.2,-12.2,30.05,WNW,296,14.0,18.0,55,0.00,,,0.00,0,Wunderground v.1.15,2013-01-31 20:39:00,
2013-01-31 14:40:00,0.2,-12.2,30.05,NW,304,12.0,18.0,55,0.00,,,0.00,0,Wunderground v.1.15,2013-01-31 20:40:00,
2013-01-31 14:41:00,0.3,-12.1,30.05,WNW,291,11.0,15.0,55,0.00,,,0.00,0,Wunderground v.1.15,2013-01-31 20:41:00,
2013-01-31 14:42:00,0.3,-12.1,30.04,WNW,287,9.0,15.0,55,0.00,,,0.00,0,Wunderground v.1.15,2013-01-31 20:42:00,
2013-01-31 14:44:00,0.4,-12.0,30.05,WNW,299,16.0,21.0,55,0.00,,,0.00,0,Wunderground v.1.15,2013-01-31 20:44:00,
2013-01-31 14:45:00,0.2,-12.2,30.05,WNW,292,16.0,21.0,55,0.00,,,0.00,0,Wunderground v.1.15,2013-01-31 20:45:00,
2013-01-31 14:46:00,0.0,-12.4,30.05,WNW,299,11.0,21.0,55,0.00,,,0.00,0,Wunderground v.1.15,2013-01-31 20:46:00,
2013-01-31 14:47:00,0.0,-12.7,30.05,WNW,297,10.0,21.0,54,0.00,,,0.00,0,Wunderground v.1.15,2013-01-31 20:47:00,
2013-01-31 14:49:00,0.0,-12.4,30.05,NW,321,13.0,21.0,55,0.00,,,0.00,0,Wunderground v.1.15,2013-01-31 20:49:00,
2013-01-31 14:50:00,0.2,-12.2,30.05,WNW,301,14.0,21.0,55,0.00,,,0.00,0,Wunderground v.1.15,2013-01-31 20:50:00,
2013-01-31 14:51:00,0.1,-12.3,30.05,WNW,296,9.0,18.0,55,0.00,,,0.00,0,Wunderground v.1.15,2013-01-31 20:51:00,
2013-01-31 14:52:00,0.1,-12.3,30.05,WNW,297,11.0,18.0,55,0.00,,,0.00,0,Wunderground v.1.15,2013-01-31 20:52:00,
2013-01-31 14:54:00,0.1,-12.3,30.05,WNW,289,10.0,18.0,55,0.00,,,0.00,0,Wunderground v.1.15,2013-01-31 20:54:00,
2013-01-31 14:55:00,0.1,-12.3,30.05,West,281,7.0,18.0,55,0.00,,,0.00,0,Wunderground v.1.15,2013-01-31 20:55:00,
2013-01-31 14:57:00,0.2,-12.2,30.05,WNW,289,9.0,18.0,55,0.00,,,0.00,0,Wunderground v.1.15,2013-01-31 20:57:00,
2013-01-31 14:59:00,0.3,-12.1,30.06,WNW,284,7.0,18.0,55,0.00,,,0.00,0,Wunderground v.1.15,2013-01-31 20:59:00,
2013-01-31 15:00:00,0.2,-12.2,30.06,WNW,297,14.0,14.0,55,0.00,,,0.00,0,Wunderground v.1.15,2013-01-31 21:00:00,
2013-01-31 15:02:00,0.3,-12.1,30.06,WNW,284,9.0,16.0,55,0.00,,,0.00,0,Wunderground v.1.15,2013-01-31 21:02:00,
2013-01-31 15:03:00,0.2,-12.2,30.06,WNW,290,9.0,16.0,55,0.00,,,0.00,0,Wunderground v.1.15,2013-01-31 21:03:00,
2013-01-31 15:05:00,0.2,-12.2,30.06,WNW,291,9.0,16.0,55,0.00,,,0.00,0,Wunderground v.1.15,2013-01-31 21:05:00,
2013-01-31 15:07:00,0.2,-12.5,30.06,WNW,286,17.0,19.0,54,0.00,,,0.00,0,Wunderground v.1.15,2013-01-31 21:07:00,
2013-01-31 15:08:00,0.2,-12.5,30.06,WNW,290,15.0,19.0,54,0.00,,,0.00,0,Wunderground v.1.15,2013-01-31 21:08:00,
2013-01-31 15:10:00,0.0,-12.7,30.06,WNW,300,16.0,16.0,54,0.00,,,0.00,0,Wunderground v.1.15,2013-01-31 21:10:00,
2013-01-31 15:12:00,-0.2,-13.3,30.06,WNW,303,15.0,17.0,53,0.00,,,0.00,0,Wunderground v.1.15,2013-01-31 21:12:00,
2013-01-31 15:13:00,-0.2,-13.3,30.06,West,281,10.0,17.0,53,0.00,,,0.00,0,Wunderground v.1.15,2013-01-31 21:13:00,
2013-01-31 15:15:00,-0.2,-12.9,30.06,WNW,301,10.0,17.0,54,0.00,,,0.00,0,Wunderground v.1.15,2013-01-31 21:15:00,
2013-01-31 15:17:00,-0.1,-12.8,30.06,WNW,292,12.0,17.0,54,0.00,,,0.00,0,Wunderground v.1.15,2013-01-31 21:17:00,
2013-01-31 15:18:00,-0.1,-12.8,30.06,WNW,289,9.0,17.0,54,0.00,,,0.00,0,Wunderground v.1.15,2013-01-31 21:18:00,
2013-01-31 15:20:00,-0.1,-12.8,30.06,WNW,291,18.0,18.0,54,0.00,,,0.00,0,Wunderground v.1.15,2013-01-31 21:20:00,
2013-01-31 15:22:00,-0.2,-12.9,30.06,WNW,286,11.0,18.0,54,0.00,,,0.00,0,Wunderground v.1.15,2013-01-31 21:22:00,
2013-01-31 15:23:00,-0.2,-12.9,30.07,WNW,283,13.0,18.0,54,0.00,,,0.00,0,Wunderground v.1.15,2013-01-31 21:23:00,
2013-01-31 15:25:00,-0.3,-13.0,30.07,West,275,11.0,18.0,54,0.00,,,0.00,0,Wunderground v.1.15,2013-01-31 21:25:00,
2013-01-31 15:27:00,-0.4,-13.1,30.07,WNW,291,14.0,20.0,54,0.00,,,0.00,0,Wunderground v.1.15,2013-01-31 21:27:00,
2013-01-31 15:28:00,-0.4,-13.1,30.07,WNW,287,9.0,20.0,54,0.00,,,0.00,0,Wunderground v.1.15,2013-01-31 21:28:00,
2013-01-31 15:30:00,-0.3,-12.6,30.07,West,274,11.0,12.0,55,0.00,,,0.00,0,Wunderground v.1.15,2013-01-31 21:30:00,
2013-01-31 15:33:00,-0.2,-12.6,30.07,WNW,288,14.0,16.0,55,0.00,,,0.00,0,Wunderground v.1.15,2013-01-31 21:33:00,
2013-01-31 15:35:00,-0.2,-12.9,30.07,WNW,283,6.0,20.0,54,0.00,,,0.00,0,Wunderground v.1.15,2013-01-31 21:35:00,
2013-01-31 15:36:00,-0.3,-13.0,30.07,WNW,293,8.0,20.0,54,0.00,,,0.00,0,Wunderground v.1.15,2013-01-31 21:36:00,
2013-01-31 15:38:00,0.0,-12.7,30.07,WNW,295,14.0,20.0,54,0.00,,,0.00,0,Wunderground v.1.15,2013-01-31 21:38:00,
2013-01-31 15:39:00,-0.1,-12.8,30.07,WNW,293,12.0,20.0,54,0.00,,,0.00,0,Wunderground v.1.15,2013-01-31 21:39:00,
2013-01-31 15:40:00,0.0,-12.7,30.07,West,278,9.0,14.0,54,0.00,,,0.00,0,Wunderground v.1.15,2013-01-31 21:40:00,
2013-01-31 15:41:00,0.1,-12.6,30.08,West,281,12.0,14.0,54,0.00,,,0.00,0,Wunderground v.1.15,2013-01-31 21:41:00,
2013-01-31 15:44:00,-0.1,-13.2,30.07,WNW,295,11.0,16.0,53,0.00,,,0.00,0,Wunderground v.1.15,2013-01-31 21:44:00,
2013-01-31 15:46:00,0.0,-12.7,30.08,WNW,297,10.0,16.0,54,0.00,,,0.00,0,Wunderground v.1.15,2013-01-31 21:46:00,
2013-01-31 15:49:00,-0.1,-13.2,30.08,WNW,297,8.0,16.0,53,0.00,,,0.00,0,Wunderground v.1.15,2013-01-31 21:49:00,
2013-01-31 15:51:00,0.0,-13.1,30.08,WNW,292,12.0,15.0,53,0.00,,,0.00,0,Wunderground v.1.15,2013-01-31 21:51:00,
2013-01-31 15:54:00,-0.1,-13.2,30.08,WNW,286,11.0,15.0,53,0.00,,,0.00,0,Wunderground v.1.15,2013-01-31 21:54:00,
2013-01-31 15:56:00,-0.3,-13.4,30.08,WNW,295,12.0,16.0,53,0.00,,,0.00,0,Wunderground v.1.15,2013-01-31 21:56:00,
2013-01-31 15:57:00,-0.3,-13.4,30.08,WNW,283,15.0,16.0,53,0.00,,,0.00,0,Wunderground v.1.15,2013-01-31 21:57:00,
2013-01-31 15:59:00,-0.3,-13.4,30.08,WNW,293,14.0,16.0,53,0.00,,,0.00,0,Wunderground v.1.15,2013-01-31 21:59:00,
2013-01-31 16:01:00,-0.5,-13.6,30.08,WNW,293,16.0,17.0,53,0.00,,,0.00,0,Wunderground v.1.15,2013-01-31 22:01:00,
2013-01-31 16:02:00,-0.4,-13.5,30.08,WNW,293,12.0,17.0,53,0.00,,,0.00,0,Wunderground v.1.15,2013-01-31 22:02:00,
2013-01-31 16:04:00,-0.4,-13.5,30.08,WNW,283,11.0,17.0,53,0.00,,,0.00,0,Wunderground v.1.15,2013-01-31 22:04:00,
2013-01-31 16:05:00,-0.5,-13.6,30.09,West,271,8.0,17.0,53,0.00,,,0.00,0,Wunderground v.1.15,2013-01-31 22:05:00,
2013-01-31 16:06:00,-0.6,-13.7,30.08,WNW,285,10.0,17.0,53,0.00,,,0.00,0,Wunderground v.1.15,2013-01-31 22:06:00,
2013-01-31 16:07:00,-0.5,-13.6,30.08,West,281,12.0,17.0,53,0.00,,,0.00,0,Wunderground v.1.15,2013-01-31 22:07:00,
2013-01-31 16:09:00,-0.7,-13.4,30.09,WNW,289,10.0,17.0,54,0.00,,,0.00,0,Wunderground v.1.15,2013-01-31 22:09:00,
2013-01-31 16:10:00,-0.7,-13.4,30.09,WNW,299,13.0,17.0,54,0.00,,,0.00,0,Wunderground v.1.15,2013-01-31 22:10:00,
2013-01-31 16:11:00,-0.8,-13.5,30.09,WNW,296,15.0,18.0,54,0.00,,,0.00,0,Wunderground v.1.15,2013-01-31 22:11:00,
2013-01-31 16:12:00,-0.8,-13.5,30.09,WNW,291,10.0,18.0,54,0.00,,,0.00,0,Wunderground v.1.15,2013-01-31 22:12:00,
2013-01-31 16:14:00,-0.8,-13.1,30.09,WNW,293,7.0,18.0,55,0.00,,,0.00,0,Wunderground v.1.15,2013-01-31 22:14:00,
2013-01-31 16:15:00,-0.8,-13.1,30.09,WNW,297,10.0,18.0,55,0.00,,,0.00,0,Wunderground v.1.15,2013-01-31 22:15:00,
2013-01-31 16:16:00,-0.8,-13.1,30.09,WNW,283,13.0,18.0,55,0.00,,,0.00,0,Wunderground v.1.15,2013-01-31 22:16:00,
2013-01-31 16:17:00,-0.8,-13.1,30.09,West,274,7.0,18.0,55,0.00,,,0.00,0,Wunderground v.1.15,2013-01-31 22:17:00,
2013-01-31 16:19:00,-0.8,-13.1,30.09,West,276,14.0,18.0,55,0.00,,,0.00,0,Wunderground v.1.15,2013-01-31 22:19:00,
2013-01-31 16:20:00,-0.8,-13.1,30.09,West,273,13.0,13.0,55,0.00,,,0.00,0,Wunderground v.1.15,2013-01-31 22:20:00,
2013-01-31 16:21:00,-0.8,-13.1,30.09,West,276,7.0,17.0,55,0.00,,,0.00,0,Wunderground v.1.15,2013-01-31 22:21:00,
2013-01-31 16:22:00,-0.9,-13.2,30.09,WNW,298,13.0,17.0,55,0.00,,,0.00,0,Wunderground v.1.15,2013-01-31 22:22:00,
2013-01-31 16:24:00,-0.9,-13.2,30.10,WNW,286,8.0,17.0,55,0.00,,,0.00,0,Wunderground v.1.15,2013-01-31 22:24:00,
2013-01-31 16:25:00,-0.8,-13.1,30.10,WNW,295,8.0,17.0,55,0.00,,,0.00,0,Wunderground v.1.15,2013-01-31 22:25:00,
2013-01-31 16:27:00,-0.9,-13.2,30.10,WNW,291,5.0,17.0,55,0.00,,,0.00,0,Wunderground v.1.15,2013-01-31 22:27:00,
2013-01-31 16:30:00,-1.0,-13.3,30.10,WNW,285,10.0,20.0,55,0.00,,,0.00,0,Wunderground v.1.15,2013-01-31 22:30:00,
2013-01-31 16:32:00,-1.0,-13.3,30.10,West,281,15.0,19.0,55,0.00,,,0.00,0,Wunderground v.1.15,2013-01-31 22:32:00,
2013-01-31 16:35:00,-1.1,-13.4,30.10,WNW,284,10.0,19.0,55,0.00,,,0.00,0,Wunderground v.1.15,2013-01-31 22:35:00,
2013-01-31 16:36:00,-1.2,-13.9,30.10,West,272,13.0,19.0,54,0.00,,,0.00,0,Wunderground v.1.15,2013-01-31 22:36:00,
2013-01-31 16:37:00,-1.1,-13.4,30.10,WNW,285,10.0,19.0,55,0.00,,,0.00,0,Wunderground v.1.15,2013-01-31 22:37:00,
2013-01-31 16:40:00,-1.1,-13.4,30.11,WNW,291,13.0,19.0,55,0.00,,,0.00,0,Wunderground v.1.15,2013-01-31 22:40:00,
2013-01-31 16:41:00,-1.2,-13.9,30.10,West,280,11.0,16.0,54,0.00,,,0.00,0,Wunderground v.1.15,2013-01-31 22:41:00,
2013-01-31 16:42:00,-1.1,-13.4,30.11,WNW,298,15.0,16.0,55,0.00,,,0.00,0,Wunderground v.1.15,2013-01-31 22:42:00,
2013-01-31 16:45:00,-1.2,-13.9,30.10,WNW,297,11.0,19.0,54,0.00,,,0.00,0,Wunderground v.1.15,2013-01-31 22:45:00,
2013-01-31 16:46:00,-1.3,-14.0,30.11,WNW,297,12.0,19.0,54,0.00,,,0.00,0,Wunderground v.1.15,2013-01-31 22:46:00,
2013-01-31 16:47:00,-1.2,-13.9,30.11,West,274,8.0,19.0,54,0.00,,,0.00,0,Wunderground v.1.15,2013-01-31 22:47:00,
2013-01-31 16:50:00,-1.3,-13.6,30.11,West,278,10.0,10.0,55,0.00,,,0.00,0,Wunderground v.1.15,2013-01-31 22:50:00,
2013-01-31 16:52:00,-1.4,-14.0,30.11,WNW,291,8.0,11.0,54,0.00,,,0.00,0,Wunderground v.1.15,2013-01-31 22:52:00,
2013-01-31 16:53:00,-1.3,-13.6,30.11,West,270,10.0,11.0,55,0.00,,,0.00,0,Wunderground v.1.15,2013-01-31 22:53:00,
2013-01-31 16:55:00,-1.4,-13.7,30.11,WNW,284,6.0,12.0,55,0.00,,,0.00,0,Wunderground v.1.15,2013-01-31 22:55:00,
2013-01-31 16:57:00,-1.4,-13.7,30.11,WNW,284,10.0,14.0,55,0.00,,,0.00,0,Wunderground v.1.15,2013-01-31 22:57:00,
2013-01-31 16:58:00,-1.4,-13.7,30.11,West,278,6.0,14.0,55,0.00,,,0.00,0,Wunderground v.1.15,2013-01-31 22:58:00,
2013-01-31 17:00:00,-1.5,-13.8,30.11,WNW,291,7.0,9.0,55,0.00,,,0.00,0,Wunderground v.1.15,2013-01-31 23:00:00,
2013-01-31 17:02:00,-1.6,-13.9,30.11,WNW,288,9.0,10.0,55,0.00,,,0.00,0,Wunderground v.1.15,2013-01-31 23:02:00,
2013-01-31 17:03:00,-1.5,-13.8,30.11,WNW,289,8.0,11.0,55,0.00,,,0.00,0,Wunderground v.1.15,2013-01-31 23:03:00,
2013-01-31 17:05:00,-1.7,-14.0,30.11,WNW,283,6.0,11.0,55,0.00,,,0.00,0,Wunderground v.1.15,2013-01-31 23:05:00,
2013-01-31 17:07:00,-1.6,-13.9,30.12,West,266,13.0,13.0,55,0.00,,,0.00,0,Wunderground v.1.15,2013-01-31 23:07:00,
2013-01-31 17:08:00,-1.6,-13.9,30.12,West,273,10.0,14.0,55,0.00,,,0.00,0,Wunderground v.1.15,2013-01-31 23:08:00,
2013-01-31 17:11:00,-1.6,-14.2,30.11,West,270,15.0,18.0,54,0.00,,,0.00,0,Wunderground v.1.15,2013-01-31 23:11:00,
2013-01-31 17:12:00,-1.7,-14.3,30.12,West,277,11.0,18.0,54,0.00,,,0.00,0,Wunderground v.1.15,2013-01-31 23:12:00,
2013-01-31 17:13:00,-1.8,-14.4,30.12,West,277,13.0,20.0,54,0.00,,,0.00,0,Wunderground v.1.15,2013-01-31 23:13:00,
2013-01-31 17:16:00,-1.9,-14.5,30.12,WNW,290,16.0,20.0,54,0.00,,,0.00,0,Wunderground v.1.15,2013-01-31 23:16:00,
2013-01-31 17:17:00,-2.0,-14.6,30.12,WNW,295,14.0,20.0,54,0.00,,,0.00,0,Wunderground v.1.15,2013-01-31 23:17:00,
2013-01-31 17:18:00,-2.1,-14.7,30.12,WNW,293,15.0,20.0,54,0.00,,,0.00,0,Wunderground v.1.15,2013-01-31 23:18:00,
2013-01-31 17:21:00,-2.2,-14.8,30.12,West,276,11.0,17.0,54,0.00,,,0.00,0,Wunderground v.1.15,2013-01-31 23:21:00,
2013-01-31 17:22:00,-2.2,-14.8,30.12,WNW,285,15.0,17.0,54,0.00,,,0.00,0,Wunderground v.1.15,2013-01-31 23:22:00,
2013-01-31 17:23:00,-2.1,-14.7,30.12,West,281,9.0,17.0,54,0.00,,,0.00,0,Wunderground v.1.15,2013-01-31 23:23:00,
2013-01-31 17:26:00,-2.3,-14.9,30.13,WNW,293,20.0,21.0,54,0.00,,,0.00,0,Wunderground v.1.15,2013-01-31 23:26:00,
2013-01-31 17:28:00,-2.4,-15.0,30.12,West,281,9.0,21.0,54,0.00,,,0.00,0,Wunderground v.1.15,2013-01-31 23:28:00,
2013-01-31 17:29:00,-2.3,-14.9,30.13,West,273,14.0,21.0,54,0.00,,,0.00,0,Wunderground v.1.15,2013-01-31 23:29:00,
2013-01-31 17:31:00,-2.6,-15.2,30.13,WNW,289,15.0,20.0,54,0.00,,,0.00,0,Wunderground v.1.15,2013-01-31 23:31:00,
2013-01-31 17:33:00,-2.8,-15.4,30.13,West,281,9.0,20.0,54,0.00,,,0.00,0,Wunderground v.1.15,2013-01-31 23:33:00,
2013-01-31 17:34:00,-2.8,-15.4,30.13,WNW,286,13.0,20.0,54,0.00,,,0.00,0,Wunderground v.1.15,2013-01-31 23:34:00,
2013-01-31 17:36:00,-2.7,-14.9,30.13,WNW,293,7.0,20.0,55,0.00,,,0.00,0,Wunderground v.1.15,2013-01-31 23:36:00,
2013-01-31 17:38:00,-2.8,-15.0,30.13,West,274,9.0,20.0,55,0.00,,,0.00,0,Wunderground v.1.15,2013-01-31 23:38:00,
2013-01-31 17:39:00,-2.8,-15.0,30.13,WNW,284,13.0,20.0,55,0.00,,,0.00,0,Wunderground v.1.15,2013-01-31 23:39:00,
2013-01-31 17:41:00,-2.8,-15.0,30.13,WNW,294,13.0,17.0,55,0.00,,,0.00,0,Wunderground v.1.15,2013-01-31 23:41:00,
2013-01-31 17:43:00,-3.0,-15.2,30.13,WNW,295,8.0,17.0,55,0.00,,,0.00,0,Wunderground v.1.15,2013-01-31 23:43:00,
2013-01-31 17:44:00,-3.1,-15.3,30.13,WNW,293,11.0,17.0,55,0.00,,,0.00,0,Wunderground v.1.15,2013-01-31 23:44:00,
2013-01-31 17:46:00,-3.1,-15.3,30.13,WNW,288,12.0,17.0,55,0.00,,,0.00,0,Wunderground v.1.15,2013-01-31 23:46:00,
2013-01-31 17:48:00,-3.2,-15.4,30.13,WNW,293,10.0,20.0,55,0.00,,,0.00,0,Wunderground v.1.15,2013-01-31 23:48:00,
2013-01-31 17:49:00,-3.2,-15.4,30.14,WNW,290,12.0,20.0,55,0.00,,,0.00,0,Wunderground v.1.15,2013-01-31 23:49:00,
2013-01-31 17:51:00,-3.3,-15.5,30.13,WNW,282,8.0,11.0,55,0.00,,,0.00,0,Wunderground v.1.15,2013-01-31 23:51:00,
2013-01-31 17:53:00,-3.3,-15.5,30.14,West,273,8.0,15.0,55,0.00,,,0.00,0,Wunderground v.1.15,2013-01-31 23:53:00,
2013-01-31 17:54:00,-3.3,-15.5,30.14,West,280,9.0,15.0,55,0.00,,,0.00,0,Wunderground v.1.15,2013-01-31 23:54:00,
2013-01-31 17:56:00,-3.4,-15.6,30.14,WNW,296,12.0,15.0,55,0.00,,,0.00,0,Wunderground v.1.15,2013-01-31 23:56:00,
2013-01-31 17:58:00,-3.4,-15.6,30.14,WNW,291,9.0,15.0,55,0.00,,,0.00,0,Wunderground v.1.15,2013-01-31 23:58:00,
2013-01-31 17:59:00,-3.5,-15.7,30.14,West,281,9.0,15.0,55,0.00,,,0.00,0,Wunderground v.1.15,2013-01-31 23:59:00,
2013-01-31 18:01:00,-3.5,-15.7,30.14,WNW,286,12.0,14.0,55,0.00,,,0.00,0,Wunderground v.1.15,2013-02-01 00:01:00,
2013-01-31 18:04:00,-3.7,-15.8,30.14,WNW,285,12.0,18.0,55,0.00,,,0.00,0,Wunderground v.1.15,2013-02-01 00:04:00,
2013-01-31 18:05:00,-3.7,-15.8,30.14,WNW,294,11.0,18.0,55,0.00,,,0.00,0,Wunderground v.1.15,2013-02-01 00:05:00,
2013-01-31 18:06:00,-3.6,-15.8,30.14,WNW,285,8.0,18.0,55,0.00,,,0.00,0,Wunderground v.1.15,2013-02-01 00:06:00,
2013-01-31 18:09:00,-3.8,-15.9,30.14,WNW,298,11.0,18.0,55,0.00,,,0.00,0,Wunderground v.1.15,2013-02-01 00:09:00,
2013-01-31 18:10:00,-3.8,-15.9,30.14,WNW,283,6.0,6.0,55,0.00,,,0.00,0,Wunderground v.1.15,2013-02-01 00:10:00,
2013-01-31 18:11:00,-3.9,-16.0,30.15,West,274,5.0,11.0,55,0.00,,,0.00,0,Wunderground v.1.15,2013-02-01 00:11:00,
2013-01-31 18:14:00,-3.8,-15.9,30.15,WNW,300,12.0,15.0,55,0.00,,,0.00,0,Wunderground v.1.15,2013-02-01 00:14:00,
2013-01-31 18:15:00,-3.9,-16.0,30.15,WNW,283,7.0,15.0,55,0.00,,,0.00,0,Wunderground v.1.15,2013-02-01 00:15:00,
2013-01-31 18:16:00,-4.0,-16.1,30.15,WNW,291,7.0,15.0,55,0.00,,,0.00,0,Wunderground v.1.15,2013-02-01 00:16:00,
2013-01-31 18:19:00,-3.9,-16.0,30.15,WNW,285,5.0,15.0,55,0.00,,,0.00,0,Wunderground v.1.15,2013-02-01 00:19:00,
2013-01-31 18:20:00,-4.0,-16.1,30.15,West,279,4.0,7.0,55,0.00,,,0.00,0,Wunderground v.1.15,2013-02-01 00:20:00,
2013-01-31 18:21:00,-4.0,-16.1,30.15,West,274,12.0,12.0,55,0.00,,,0.00,0,Wunderground v.1.15,2013-02-01 00:21:00,
2013-01-31 18:24:00,-4.2,-16.3,30.15,West,270,11.0,17.0,55,0.00,,,0.00,0,Wunderground v.1.15,2013-02-01 00:24:00,
2013-01-31 18:25:00,-4.2,-16.3,30.15,West,277,10.0,17.0,55,0.00,,,0.00,0,Wunderground v.1.15,2013-02-01 00:25:00,
2013-01-31 18:26:00,-4.2,-16.3,30.15,WNW,299,8.0,17.0,55,0.00,,,0.00,0,Wunderground v.1.15,2013-02-01 00:26:00,
2013-01-31 18:27:00,-4.3,-16.4,30.15,West,270,12.0,17.0,55,0.00,,,0.00,0,Wunderground v.1.15,2013-02-01 00:27:00,
2013-01-31 18:30:00,-4.5,-16.2,30.16,West,276,6.0,17.0,56,0.00,,,0.00,0,Wunderground v.1.15,2013-02-01 00:30:00,
2013-01-31 18:31:00,-4.5,-16.2,30.15,West,277,9.0,11.0,56,0.00,,,0.00,0,Wunderground v.1.15,2013-02-01 00:31:00,
2013-01-31 18:32:00,-4.5,-16.2,30.15,West,276,9.0,12.0,56,0.00,,,0.00,0,Wunderground v.1.15,2013-02-01 00:32:00,
2013-01-31 18:35:00,-4.6,-16.3,30.15,WNW,287,7.0,12.0,56,0.00,,,0.00,0,Wunderground v.1.15,2013-02-01 00:35:00,
2013-01-31 18:36:00,-4.6,-16.3,30.16,West,279,5.0,12.0,56,0.00,,,0.00,0,Wunderground v.1.15,2013-02-01 00:36:00,
2013-01-31 18:37:00,-4.6,-16.3,30.15,West,278,12.0,14.0,56,0.00,,,0.00,0,Wunderground v.1.15,2013-02-01 00:37:00,
2013-01-31 18:40:00,-4.8,-16.5,30.16,WNW,286,11.0,15.0,56,0.00,,,0.00,0,Wunderground v.1.15,2013-02-01 00:40:00,
2013-01-31 18:41:00,-4.8,-16.5,30.16,WNW,288,9.0,11.0,56,0.00,,,0.00,0,Wunderground v.1.15,2013-02-01 00:41:00,
2013-01-31 18:42:00,-4.8,-16.5,30.16,WNW,286,10.0,13.0,56,0.00,,,0.00,0,Wunderground v.1.15,2013-02-01 00:42:00,
2013-01-31 18:45:00,-4.9,-16.6,30.16,West,274,13.0,18.0,56,0.00,,,0.00,0,Wunderground v.1.15,2013-02-01 00:45:00,
2013-01-31 18:46:00,-4.9,-16.6,30.16,West,272,12.0,18.0,56,0.00,,,0.00,0,Wunderground v.1.15,2013-02-01 00:46:00,
2013-01-31 18:47:00,-5.1,-16.8,30.16,WNW,284,15.0,18.0,56,0.00,,,0.00,0,Wunderground v.1.15,2013-02-01 00:47:00,
2013-01-31 18:50:00,-5.0,-16.7,30.16,WNW,286,10.0,18.0,56,0.00,,,0.00,0,Wunderground v.1.15,2013-02-01 00:50:00,
2013-01-31 18:52:00,-5.1,-16.8,30.16,West,279,8.0,10.0,56,0.00,,,0.00,0,Wunderground v.1.15,2013-02-01 00:52:00,
2013-01-31 18:53:00,-5.2,-16.9,30.16,West,277,7.0,15.0,56,0.00,,,0.00,0,Wunderground v.1.15,2013-02-01 00:53:00,
2013-01-31 18:55:00,-5.3,-17.0,30.16,WNW,285,9.0,16.0,56,0.00,,,0.00,0,Wunderground v.1.15,2013-02-01 00:55:00,
2013-01-31 18:57:00,-5.4,-17.4,30.16,WNW,294,8.0,16.0,55,0.00,,,0.00,0,Wunderground v.1.15,2013-02-01 00:57:00,
2013-01-31 18:58:00,-5.4,-17.1,30.16,WNW,295,7.0,16.0,56,0.00,,,0.00,0,Wunderground v.1.15,2013-02-01 00:58:00,
2013-01-31 19:00:00,-5.3,-17.0,30.16,West,280,10.0,10.0,56,0.00,,,0.00,0,Wunderground v.1.15,2013-02-01 01:00:00,
2013-01-31 19:01:00,-5.5,-17.5,30.16,WNW,287,10.0,14.0,55,0.00,,,0.00,0,Wunderground v.1.15,2013-02-01 01:01:00,
2013-01-31 19:02:00,-5.4,-17.4,30.16,WNW,283,12.0,14.0,55,0.00,,,0.00,0,Wunderground v.1.15,2013-02-01 01:02:00,
2013-01-31 19:03:00,-5.5,-17.5,30.16,WNW,284,11.0,14.0,55,0.00,,,0.00,0,Wunderground v.1.15,2013-02-01 01:03:00,
2013-01-31 19:05:00,-5.5,-17.2,30.16,WNW,289,8.0,14.0,56,0.00,,,0.00,0,Wunderground v.1.15,2013-02-01 01:05:00,
2013-01-31 19:06:00,-5.6,-17.3,30.16,WNW,286,12.0,14.0,56,0.00,,,0.00,0,Wunderground v.1.15,2013-02-01 01:06:00,
2013-01-31 19:08:00,-5.6,-17.3,30.17,WNW,294,10.0,17.0,56,0.00,,,0.00,0,Wunderground v.1.15,2013-02-01 01:08:00,
2013-01-31 19:10:00,-5.7,-17.4,30.17,West,276,7.0,10.0,56,0.00,,,0.00,0,Wunderground v.1.15,2013-02-01 01:10:00,
2013-01-31 19:12:00,-5.6,-17.3,30.17,WNW,293,12.0,12.0,56,0.00,,,0.00,0,Wunderground v.1.15,2013-02-01 01:12:00,
2013-01-31 19:13:00,-5.6,-17.3,30.17,WNW,290,9.0,14.0,56,0.00,,,0.00,0,Wunderground v.1.15,2013-02-01 01:13:00,
2013-01-31 19:15:00,-5.8,-17.5,30.17,WNW,297,5.0,16.0,56,0.00,,,0.00,0,Wunderground v.1.15,2013-02-01 01:15:00,
2013-01-31 19:17:00,-5.7,-17.4,30.17,West,265,4.0,16.0,56,0.00,,,0.00,0,Wunderground v.1.15,2013-02-01 01:17:00,
2013-01-31 19:18:00,-5.8,-17.5,30.17,WNW,291,10.0,16.0,56,0.00,,,0.00,0,Wunderground v.1.15,2013-02-01 01:18:00,
2013-01-31 19:20:00,-5.8,-17.5,30.17,West,281,7.0,10.0,56,0.00,,,0.00,0,Wunderground v.1.15,2013-02-01 01:20:00,
2013-01-31 19:22:00,-5.8,-17.5,30.17,WNW,289,13.0,14.0,56,0.00,,,0.00,0,Wunderground v.1.15,2013-02-01 01:22:00,
2013-01-31 19:23:00,-5.8,-17.5,30.17,West,277,12.0,16.0,56,0.00,,,0.00,0,Wunderground v.1.15,2013-02-01 01:23:00,
2013-01-31 19:26:00,-5.9,-17.6,30.17,West,279,4.0,16.0,56,0.00,,,0.00,0,Wunderground v.1.15,2013-02-01 01:26:00,
2013-01-31 19:27:00,-5.9,-17.6,30.17,WNW,289,5.0,16.0,56,0.00,,,0.00,0,Wunderground v.1.15,2013-02-01 01:27:00,
2013-01-31 19:28:00,-5.8,-17.5,30.17,WNW,289,5.0,16.0,56,0.00,,,0.00,0,Wunderground v.1.15,2013-02-01 01:28:00,
2013-01-31 19:31:00,-5.9,-17.6,30.17,WNW,287,8.0,14.0,56,0.00,,,0.00,0,Wunderground v.1.15,2013-02-01 01:31:00,
2013-01-31 19:32:00,-6.0,-17.7,30.17,WNW,294,14.0,16.0,56,0.00,,,0.00,0,Wunderground v.1.15,2013-02-01 01:32:00,
2013-01-31 19:33:00,-6.0,-17.7,30.17,WNW,295,9.0,16.0,56,0.00,,,0.00,0,Wunderground v.1.15,2013-02-01 01:33:00,
2013-01-31 19:34:00,-6.0,-17.7,30.18,WNW,297,11.0,16.0,56,0.00,,,0.00,0,Wunderground v.1.15,2013-02-01 01:34:00,
2013-01-31 19:36:00,-5.9,-17.6,30.18,West,268,6.0,16.0,56,0.00,,,0.00,0,Wunderground v.1.15,2013-02-01 01:36:00,
2013-01-31 19:37:00,-5.9,-17.6,30.18,WNW,285,9.0,16.0,56,0.00,,,0.00,0,Wunderground v.1.15,2013-02-01 01:37:00,
2013-01-31 19:38:00,-5.9,-17.6,30.18,West,269,13.0,16.0,56,0.00,,,0.00,0,Wunderground v.1.15,2013-02-01 01:38:00,
2013-01-31 19:39:00,-6.0,-17.7,30.18,West,272,8.0,16.0,56,0.00,,,0.00,0,Wunderground v.1.15,2013-02-01 01:39:00,
2013-01-31 19:41:00,-6.1,-17.8,30.18,West,280,8.0,13.0,56,0.00,,,0.00,0,Wunderground v.1.15,2013-02-01 01:41:00,
2013-01-31 19:43:00,-6.1,-17.8,30.18,West,276,18.0,18.0,56,0.00,,,0.00,0,Wunderground v.1.15,2013-02-01 01:43:00,
2013-01-31 19:44:00,-6.2,-17.8,30.18,West,279,8.0,18.0,56,0.00,,,0.00,0,Wunderground v.1.15,2013-02-01 01:44:00,
2013-01-31 19:46:00,-6.2,-17.8,30.18,West,273,8.0,18.0,56,0.00,,,0.00,0,Wunderground v.1.15,2013-02-01 01:46:00,
2013-01-31 19:48:00,-6.3,-17.9,30.18,West,279,8.0,18.0,56,0.00,,,0.00,0,Wunderground v.1.15,2013-02-01 01:48:00,
2013-01-31 19:49:00,-6.3,-18.3,30.18,WNW,283,6.0,18.0,55,0.00,,,0.00,0,Wunderground v.1.15,2013-02-01 01:49:00,
2013-01-31 19:51:00,-6.4,-18.4,30.18,WNW,294,8.0,9.0,55,0.00,,,0.00,0,Wunderground v.1.15,2013-02-01 01:51:00,
2013-01-31 19:53:00,-6.4,-18.4,30.18,West,277,9.0,13.0,55,0.00,,,0.00,0,Wunderground v.1.15,2013-02-01 01:53:00,
2013-01-31 19:54:00,-6.4,-18.4,30.18,WNW,288,8.0,13.0,55,0.00,,,0.00,0,Wunderground v.1.15,2013-02-01 01:54:00,
2013-01-31 19:56:00,-6.4,-18.4,30.19,West,277,7.0,13.0,55,0.00,,,0.00,0,Wunderground v.1.15,2013-02-01 01:56:00,
2013-01-31 19:58:00,-6.4,-18.4,30.19,West,277,5.0,13.0,55,0.00,,,0.00,0,Wunderground v.1.15,2013-02-01 01:58:00,
2013-01-31 19:59:00,-6.5,-18.5,30.19,WNW,286,6.0,13.0,55,0.00,,,0.00,0,Wunderground v.1.15,2013-02-01 01:59:00,
2013-01-31 20:01:00,-6.5,-18.5,30.19,WNW,284,8.0,10.0,55,0.00,,,0.00,0,Wunderground v.1.15,2013-02-01 02:01:00,
2013-01-31 20:03:00,-6.5,-18.1,30.19,WNW,284,11.0,13.0,56,0.00,,,0.00,0,Wunderground v.1.15,2013-02-01 02:03:00,
2013-01-31 20:04:00,-6.6,-18.2,30.19,West,269,11.0,13.0,56,0.00,,,0.00,0,Wunderground v.1.15,2013-02-01 02:04:00,
2013-01-31 20:05:00,-6.5,-18.1,30.19,West,269,8.0,13.0,56,0.00,,,0.00,0,Wunderground v.1.15,2013-02-01 02:05:00,
2013-01-31 20:06:00,-6.6,-18.2,30.19,WNW,288,10.0,13.0,56,0.00,,,0.00,0,Wunderground v.1.15,2013-02-01 02:06:00,
2013-01-31 20:08:00,-6.6,-18.2,30.19,WNW,293,6.0,17.0,56,0.00,,,0.00,0,Wunderground v.1.15,2013-02-01 02:08:00,
2013-01-31 20:09:00,-6.7,-18.3,30.19,WNW,298,7.0,17.0,56,0.00,,,0.00,0,Wunderground v.1.15,2013-02-01 02:09:00,
2013-01-31 20:10:00,-6.7,-18.3,30.19,WNW,295,8.0,17.0,56,0.00,,,0.00,0,Wunderground v.1.15,2013-02-01 02:10:00,
2013-01-31 20:12:00,-6.7,-18.3,30.19,West,275,4.0,11.0,56,0.00,,,0.00,0,Wunderground v.1.15,2013-02-01 02:12:00,
2013-01-31 20:13:00,-6.8,-18.4,30.19,West,270,11.0,16.0,56,0.00,,,0.00,0,Wunderground v.1.15,2013-02-01 02:13:00,
2013-01-31 20:14:00,-6.8,-18.4,30.19,West,276,11.0,16.0,56,0.00,,,0.00,0,Wunderground v.1.15,2013-02-01 02:14:00,
2013-01-31 20:15:00,-6.8,-18.4,30.19,WNW,290,11.0,16.0,56,0.00,,,0.00,0,Wunderground v.1.15,2013-02-01 02:15:00,
2013-01-31 20:17:00,-6.9,-18.5,30.19,WNW,287,10.0,16.0,56,0.00,,,0.00,0,Wunderground v.1.15,2013-02-01 02:17:00,
2013-01-31 20:19:00,-6.9,-18.9,30.19,West,277,9.0,16.0,55,0.00,,,0.00,0,Wunderground v.1.15,2013-02-01 02:19:00,
2013-01-31 20:20:00,-6.8,-18.8,30.20,West,275,11.0,16.0,55,0.00,,,0.00,0,Wunderground v.1.15,2013-02-01 02:20:00,
2013-01-31 20:22:00,-6.8,-18.8,30.20,WNW,288,6.0,15.0,55,0.00,,,0.00,0,Wunderground v.1.15,2013-02-01 02:22:00,
2013-01-31 20:24:00,-6.9,-18.9,30.20,WNW,295,9.0,15.0,55,0.00,,,0.00,0,Wunderground v.1.15,2013-02-01 02:24:00,
2013-01-31 20:25:00,-6.8,-18.8,30.20,WNW,288,8.0,15.0,55,0.00,,,0.00,0,Wunderground v.1.15,2013-02-01 02:25:00,
2013-01-31 20:27:00,-7.0,-19.0,30.20,West,273,12.0,15.0,55,0.00,,,0.00,0,Wunderground v.1.15,2013-02-01 02:27:00,
2013-01-31 20:29:00,-7.1,-19.0,30.20,WNW,293,9.0,15.0,55,0.00,,,0.00,0,Wunderground v.1.15,2013-02-01 02:29:00,
2013-01-31 20:30:00,-7.1,-19.0,30.20,WNW,291,9.0,15.0,55,0.00,,,0.00,0,Wunderground v.1.15,2013-02-01 02:30:00,
2013-01-31 20:32:00,-7.1,-19.0,30.20,West,276,9.0,13.0,55,0.00,,,0.00,0,Wunderground v.1.15,2013-02-01 02:32:00,
2013-01-31 20:34:00,-7.2,-19.1,30.20,WNW,299,7.0,13.0,55,0.00,,,0.00,0,Wunderground v.1.15,2013-02-01 02:34:00,
2013-01-31 20:35:00,-7.2,-19.1,30.20,WNW,298,9.0,13.0,55,0.00,,,0.00,0,Wunderground v.1.15,2013-02-01 02:35:00,
2013-01-31 20:36:00,-7.2,-19.1,30.20,West,272,12.0,13.0,55,0.00,,,0.00,0,Wunderground v.1.15,2013-02-01 02:36:00,
2013-01-31 20:37:00,-7.3,-19.2,30.20,WNW,291,9.0,13.0,55,0.00,,,0.00,0,Wunderground v.1.15,2013-02-01 02:37:00,
2013-01-31 20:39:00,-7.3,-19.2,30.20,WNW,287,7.0,13.0,55,0.00,,,0.00,0,Wunderground v.1.15,2013-02-01 02:39:00,
2013-01-31 20:40:00,-7.3,-19.2,30.20,WNW,291,9.0,13.0,55,0.00,,,0.00,0,Wunderground v.1.15,2013-02-01 02:40:00,
2013-01-31 20:41:00,-7.3,-19.2,30.20,West,278,9.0,11.0,55,0.00,,,0.00,0,Wunderground v.1.15,2013-02-01 02:41:00,
2013-01-31 20:43:00,-7.4,-19.3,30.20,West,281,9.0,13.0,55,0.00,,,0.00,0,Wunderground v.1.15,2013-02-01 02:43:00,
2013-01-31 20:44:00,-7.4,-19.3,30.20,West,278,8.0,13.0,55,0.00,,,0.00,0,Wunderground v.1.15,2013-02-01 02:44:00,
2013-01-31 20:46:00,-7.4,-19.3,30.20,West,278,8.0,13.0,55,0.00,,,0.00,0,Wunderground v.1.15,2013-02-01 02:46:00,
2013-01-31 20:48:00,-7.5,-19.4,30.20,WNW,287,9.0,13.0,55,0.00,,,0.00,0,Wunderground v.1.15,2013-02-01 02:48:00,
2013-01-31 20:50:00,-7.5,-19.4,30.20,West,276,8.0,13.0,55,0.00,,,0.00,0,Wunderground v.1.15,2013-02-01 02:50:00,
2013-01-31 20:51:00,-7.5,-19.4,30.20,WNW,285,8.0,9.0,55,0.00,,,0.00,0,Wunderground v.1.15,2013-02-01 02:51:00,
2013-01-31 20:53:00,-7.5,-19.4,30.20,West,273,9.0,11.0,55,0.00,,,0.00,0,Wunderground v.1.15,2013-02-01 02:53:00,
2013-01-31 20:55:00,-7.5,-19.4,30.20,WNW,289,7.0,11.0,55,0.00,,,0.00,0,Wunderground v.1.15,2013-02-01 02:55:00,
2013-01-31 20:56:00,-7.6,-19.5,30.20,West,281,8.0,11.0,55,0.00,,,0.00,0,Wunderground v.1.15,2013-02-01 02:56:00,
2013-01-31 20:57:00,-7.5,-19.4,30.20,West,275,9.0,11.0,55,0.00,,,0.00,0,Wunderground v.1.15,2013-02-01 02:57:00,
2013-01-31 20:58:00,-7.5,-19.4,30.20,West,270,8.0,13.0,55,0.00,,,0.00,0,Wunderground v.1.15,2013-02-01 02:58:00,
2013-01-31 21:00:00,-7.5,-19.4,30.20,WNW,288,10.0,14.0,55,0.00,,,0.00,0,Wunderground v.1.15,2013-02-01 03:00:00,
2013-01-31 21:01:00,-7.5,-19.4,30.20,WNW,284,12.0,13.0,55,0.00,,,0.00,0,Wunderground v.1.15,2013-02-01 03:01:00,
2013-01-31 21:02:00,-7.5,-19.8,30.20,West,278,7.0,16.0,54,0.00,,,0.00,0,Wunderground v.1.15,2013-02-01 03:02:00,
2013-01-31 21:03:00,-7.7,-19.6,30.20,WNW,289,9.0,16.0,55,0.00,,,0.00,0,Wunderground v.1.15,2013-02-01 03:03:00,
2013-01-31 21:05:00,-7.7,-19.6,30.20,WNW,287,8.0,16.0,55,0.00,,,0.00,0,Wunderground v.1.15,2013-02-01 03:05:00,
2013-01-31 21:06:00,-7.7,-20.0,30.21,West,279,12.0,16.0,54,0.00,,,0.00,0,Wunderground v.1.15,2013-02-01 03:06:00,
2013-01-31 21:07:00,-7.7,-20.0,30.21,West,278,12.0,16.0,54,0.00,,,0.00,0,Wunderground v.1.15,2013-02-01 03:07:00,
2013-01-31 21:08:00,-7.8,-20.1,30.21,West,270,6.0,16.0,54,0.00,,,0.00,0,Wunderground v.1.15,2013-02-01 03:08:00,
2013-01-31 21:10:00,-7.8,-20.1,30.21,West,278,7.0,7.0,54,0.00,,,0.00,0,Wunderground v.1.15,2013-02-01 03:10:00,
2013-01-31 21:11:00,-7.8,-20.1,30.21,WNW,294,8.0,9.0,54,0.00,,,0.00,0,Wunderground v.1.15,2013-02-01 03:11:00,
2013-01-31 21:12:00,-7.9,-20.2,30.21,West,278,7.0,10.0,54,0.00,,,0.00,0,Wunderground v.1.15,2013-02-01 03:12:00,
2013-01-31 21:14:00,-7.8,-20.1,30.21,WNW,283,6.0,10.0,54,0.00,,,0.00,0,Wunderground v.1.15,2013-02-01 03:14:00,
2013-01-31 21:15:00,-7.8,-19.7,30.21,WNW,291,11.0,12.0,55,0.00,,,0.00,0,Wunderground v.1.15,2013-02-01 03:15:00,
2013-01-31 21:16:00,-7.9,-20.2,30.21,WNW,282,6.0,13.0,54,0.00,,,0.00,0,Wunderground v.1.15,2013-02-01 03:16:00,
2013-01-31 21:18:00,-7.9,-20.2,30.20,WNW,291,14.0,14.0,54,0.00,,,0.00,0,Wunderground v.1.15,2013-02-01 03:18:00,
2013-01-31 21:19:00,-7.9,-20.2,30.21,WNW,282,10.0,15.0,54,0.00,,,0.00,0,Wunderground v.1.15,2013-02-01 03:19:00,
2013-01-31 21:20:00,-7.9,-20.2,30.21,WNW,298,10.0,12.0,54,0.00,,,0.00,0,Wunderground v.1.15,2013-02-01 03:20:00,
2013-01-31 21:21:00,-7.9,-20.2,30.21,WNW,287,15.0,15.0,54,0.00,,,0.00,0,Wunderground v.1.15,2013-02-01 03:21:00,
2013-01-31 21:23:00,-7.9,-20.2,30.21,West,276,8.0,17.0,54,0.00,,,0.00,0,Wunderground v.1.15,2013-02-01 03:23:00,
2013-01-31 21:24:00,-8.0,-20.2,30.21,WNW,282,9.0,17.0,54,0.00,,,0.00,0,Wunderground v.1.15,2013-02-01 03:24:00,
2013-01-31 21:25:00,-8.0,-20.2,30.21,WNW,286,8.0,17.0,54,0.00,,,0.00,0,Wunderground v.1.15,2013-02-01 03:25:00,
2013-01-31 21:26:00,-8.0,-20.2,30.21,West,276,8.0,17.0,54,0.00,,,0.00,0,Wunderground v.1.15,2013-02-01 03:26:00,
2013-01-31 21:28:00,-7.9,-20.2,30.21,WNW,286,10.0,17.0,54,0.00,,,0.00,0,Wunderground v.1.15,2013-02-01 03:28:00,
2013-01-31 21:29:00,-8.0,-20.2,30.21,WNW,289,11.0,17.0,54,0.00,,,0.00,0,Wunderground v.1.15,2013-02-01 03:29:00,
2013-01-31 21:30:00,-8.0,-20.2,30.21,West,279,9.0,11.0,54,0.00,,,0.00,0,Wunderground v.1.15,2013-02-01 03:30:00,
2013-01-31 21:31:00,-8.0,-20.2,30.21,WNW,288,6.0,11.0,54,0.00,,,0.00,0,Wunderground v.1.15,2013-02-01 03:31:00,
2013-01-31 21:34:00,-8.1,-20.3,30.21,West,281,6.0,13.0,54,0.00,,,0.00,0,Wunderground v.1.15,2013-02-01 03:34:00,
2013-01-31 21:35:00,-8.0,-20.2,30.21,West,281,12.0,13.0,54,0.00,,,0.00,0,Wunderground v.1.15,2013-02-01 03:35:00,
2013-01-31 21:37:00,-8.1,-20.3,30.21,West,274,12.0,18.0,54,0.00,,,0.00,0,Wunderground v.1.15,2013-02-01 03:37:00,
2013-01-31 21:39:00,-8.1,-20.3,30.21,West,278,6.0,18.0,54,0.00,,,0.00,0,Wunderground v.1.15,2013-02-01 03:39:00,
2013-01-31 21:40:00,-8.1,-20.3,30.21,WNW,289,7.0,18.0,54,0.00,,,0.00,0,Wunderground v.1.15,2013-02-01 03:40:00,
2013-01-31 21:42:00,-8.2,-20.4,30.21,WNW,286,7.0,11.0,54,0.00,,,0.00,0,Wunderground v.1.15,2013-02-01 03:42:00,
2013-01-31 21:44:00,-8.1,-20.3,30.21,West,272,10.0,11.0,54,0.00,,,0.00,0,Wunderground v.1.15,2013-02-01 03:44:00,
2013-01-31 21:45:00,-8.2,-20.4,30.21,West,272,8.0,11.0,54,0.00,,,0.00,0,Wunderground v.1.15,2013-02-01 03:45:00,
2013-01-31 21:46:00,-8.1,-20.3,30.21,West,281,8.0,11.0,54,0.00,,,0.00,0,Wunderground v.1.15,2013-02-01 03:46:00,
2013-01-31 21:47:00,-8.2,-20.4,30.22,WNW,284,8.0,11.0,54,0.00,,,0.00,0,Wunderground v.1.15,2013-02-01 03:47:00,
2013-01-31 21:49:00,-8.2,-20.4,30.22,WNW,287,8.0,11.0,54,0.00,,,0.00,0,Wunderground v.1.15,2013-02-01 03:49:00,
2013-01-31 21:50:00,-8.3,-20.5,30.22,WNW,286,7.0,11.0,54,0.00,,,0.00,0,Wunderground v.1.15,2013-02-01 03:50:00,
2013-01-31 21:51:00,-8.3,-20.5,30.22,WNW,291,9.0,10.0,54,0.00,,,0.00,0,Wunderground v.1.15,2013-02-01 03:51:00,
2013-01-31 21:52:00,-8.3,-20.9,30.22,West,276,9.0,11.0,53,0.00,,,0.00,0,Wunderground v.1.15,2013-02-01 03:52:00,
2013-01-31 21:54:00,-8.3,-20.5,30.22,West,279,6.0,15.0,54,0.00,,,0.00,0,Wunderground v.1.15,2013-02-01 03:54:00,
2013-01-31 21:55:00,-8.3,-20.9,30.22,West,267,8.0,15.0,53,0.00,,,0.00,0,Wunderground v.1.15,2013-02-01 03:55:00,
2013-01-31 21:56:00,-8.3,-20.9,30.22,West,271,10.0,15.0,53,0.00,,,0.00,0,Wunderground v.1.15,2013-02-01 03:56:00,
2013-01-31 21:57:00,-8.3,-20.5,30.22,West,272,6.0,15.0,54,0.00,,,0.00,0,Wunderground v.1.15,2013-02-01 03:57:00,
2013-01-31 21:59:00,-8.4,-21.0,30.22,West,271,12.0,15.0,53,0.00,,,0.00,0,Wunderground v.1.15,2013-02-01 03:59:00,
2013-01-31 22:00:00,-8.4,-20.6,30.22,WNW,291,9.0,12.0,54,0.00,,,0.00,0,Wunderground v.1.15,2013-02-01 04:00:00,
2013-01-31 22:01:00,-8.5,-20.7,30.22,West,275,8.0,12.0,54,0.00,,,0.00,0,Wunderground v.1.15,2013-02-01 04:01:00,
2013-01-31 22:02:00,-8.4,-21.0,30.22,West,278,6.0,12.0,53,0.00,,,0.00,0,Wunderground v.1.15,2013-02-01 04:02:00,
2013-01-31 22:04:00,-8.4,-21.0,30.22,West,271,16.0,16.0,53,0.00,,,0.00,0,Wunderground v.1.15,2013-02-01 04:04:00,
2013-01-31 22:05:00,-8.4,-21.0,30.22,West,280,7.0,16.0,53,0.00,,,0.00,0,Wunderground v.1.15,2013-02-01 04:05:00,
2013-01-31 22:06:00,-8.5,-21.1,30.22,West,276,9.0,16.0,53,0.00,,,0.00,0,Wunderground v.1.15,2013-02-01 04:06:00,
2013-01-31 22:07:00,-8.5,-21.1,30.22,West,281,9.0,16.0,53,0.00,,,0.00,0,Wunderground v.1.15,2013-02-01 04:07:00,
2013-01-31 22:09:00,-8.5,-21.1,30.22,WNW,288,6.0,16.0,53,0.00,,,0.00,0,Wunderground v.1.15,2013-02-01 04:09:00,
2013-01-31 22:10:00,-8.5,-21.1,30.22,WNW,283,6.0,8.0,53,0.00,,,0.00,0,Wunderground v.1.15,2013-02-01 04:10:00,
2013-01-31 22:11:00,-8.5,-21.1,30.22,WNW,288,6.0,8.0,53,0.00,,,0.00,0,Wunderground v.1.15,2013-02-01 04:11:00,
2013-01-31 22:12:00,-8.5,-21.1,30.22,WNW,293,9.0,12.0,53,0.00,,,0.00,0,Wunderground v.1.15,2013-02-01 04:12:00,
2013-01-31 22:14:00,-8.5,-21.1,30.22,WNW,292,7.0,12.0,53,0.00,,,0.00,0,Wunderground v.1.15,2013-02-01 04:14:00,
2013-01-31 22:15:00,-8.5,-21.1,30.22,WNW,291,5.0,12.0,53,0.00,,,0.00,0,Wunderground v.1.15,2013-02-01 04:15:00,
2013-01-31 22:16:00,-8.6,-21.2,30.22,West,267,10.0,13.0,53,0.00,,,0.00,0,Wunderground v.1.15,2013-02-01 04:16:00,
2013-01-31 22:17:00,-8.6,-21.2,30.22,West,276,7.0,14.0,53,0.00,,,0.00,0,Wunderground v.1.15,2013-02-01 04:17:00,
2013-01-31 22:19:00,-8.6,-21.2,30.22,WNW,288,11.0,16.0,53,0.00,,,0.00,0,Wunderground v.1.15,2013-02-01 04:19:00,
2013-01-31 22:20:00,-8.7,-21.3,30.22,West,277,8.0,8.0,53,0.00,,,0.00,0,Wunderground v.1.15,2013-02-01 04:20:00,
2013-01-31 22:21:00,-8.6,-21.2,30.22,West,266,8.0,8.0,53,0.00,,,0.00,0,Wunderground v.1.15,2013-02-01 04:21:00,
2013-01-31 22:22:00,-8.6,-21.2,30.23,West,280,7.0,10.0,53,0.00,,,0.00,0,Wunderground v.1.15,2013-02-01 04:22:00,
2013-01-31 22:24:00,-8.7,-21.3,30.22,West,278,6.0,10.0,53,0.00,,,0.00,0,Wunderground v.1.15,2013-02-01 04:24:00,
2013-01-31 22:25:00,-8.7,-21.3,30.22,WNW,300,9.0,10.0,53,0.00,,,0.00,0,Wunderground v.1.15,2013-02-01 04:25:00,
2013-01-31 22:26:00,-8.6,-21.2,30.22,West,281,8.0,11.0,53,0.00,,,0.00,0,Wunderground v.1.15,2013-02-01 04:26:00,
2013-01-31 22:27:00,-8.7,-21.3,30.23,West,279,9.0,12.0,53,0.00,,,0.00,0,Wunderground v.1.15,2013-02-01 04:27:00,
2013-01-31 22:29:00,-8.7,-21.3,30.23,WNW,286,6.0,12.0,53,0.00,,,0.00,0,Wunderground v.1.15,2013-02-01 04:29:00,
2013-01-31 22:30:00,-8.8,-21.4,30.23,WNW,295,6.0,8.0,53,0.00,,,0.00,0,Wunderground v.1.15,2013-02-01 04:30:00,
2013-01-31 22:32:00,-8.7,-21.3,30.23,WNW,294,6.0,8.0,53,0.00,,,0.00,0,Wunderground v.1.15,2013-02-01 04:32:00,
2013-01-31 22:35:00,-8.8,-21.4,30.23,WNW,288,11.0,14.0,53,0.00,,,0.00,0,Wunderground v.1.15,2013-02-01 04:35:00,
2013-01-31 22:36:00,-8.8,-21.4,30.23,WNW,291,8.0,14.0,53,0.00,,,0.00,0,Wunderground v.1.15,2013-02-01 04:36:00,
2013-01-31 22:37:00,-8.9,-21.4,30.23,West,273,10.0,14.0,53,0.00,,,0.00,0,Wunderground v.1.15,2013-02-01 04:37:00,
2013-01-31 22:40:00,-8.9,-21.4,30.23,WNW,288,5.0,14.0,53,0.00,,,0.00,0,Wunderground v.1.15,2013-02-01 04:40:00,
2013-01-31 22:41:00,-8.9,-21.4,30.23,West,280,8.0,10.0,53,0.00,,,0.00,0,Wunderground v.1.15,2013-02-01 04:41:00,
2013-01-31 22:42:00,-8.9,-21.4,30.23,WNW,285,12.0,12.0,53,0.00,,,0.00,0,Wunderground v.1.15,2013-02-01 04:42:00,
2013-01-31 22:43:00,-8.9,-21.4,30.23,WNW,287,10.0,14.0,53,0.00,,,0.00,0,Wunderground v.1.15,2013-02-01 04:43:00,
2013-01-31 22:45:00,-8.9,-21.4,30.23,West,280,12.0,14.0,53,0.00,,,0.00,0,Wunderground v.1.15,2013-02-01 04:45:00,
2013-01-31 22:46:00,-9.0,-21.5,30.23,WNW,285,9.0,14.0,53,0.00,,,0.00,0,Wunderground v.1.15,2013-02-01 04:46:00,
2013-01-31 22:47:00,-8.9,-21.4,30.23,WNW,285,13.0,14.0,53,0.00,,,0.00,0,Wunderground v.1.15,2013-02-01 04:47:00,
2013-01-31 22:48:00,-8.9,-21.4,30.23,West,281,9.0,14.0,53,0.00,,,0.00,0,Wunderground v.1.15,2013-02-01 04:48:00,
2013-01-31 22:50:00,-9.0,-21.5,30.23,West,275,9.0,10.0,53,0.00,,,0.00,0,Wunderground v.1.15,2013-02-01 04:50:00,
2013-01-31 22:51:00,-8.9,-21.4,30.23,WNW,299,8.0,10.0,53,0.00,,,0.00,0,Wunderground v.1.15,2013-02-01 04:51:00,
2013-01-31 22:52:00,-9.0,-21.5,30.23,WNW,286,8.0,11.0,53,0.00,,,0.00,0,Wunderground v.1.15,2013-02-01 04:52:00,
2013-01-31 22:53:00,-9.0,-21.5,30.23,WNW,284,7.0,11.0,53,0.00,,,0.00,0,Wunderground v.1.15,2013-02-01 04:53:00,
2013-01-31 22:56:00,-9.0,-21.5,30.23,WNW,283,9.0,12.0,53,0.00,,,0.00,0,Wunderground v.1.15,2013-02-01 04:56:00,
2013-01-31 22:57:00,-9.0,-21.5,30.23,West,276,6.0,12.0,53,0.00,,,0.00,0,Wunderground v.1.15,2013-02-01 04:57:00,
2013-01-31 22:58:00,-9.1,-21.6,30.23,WNW,285,10.0,12.0,53,0.00,,,0.00,0,Wunderground v.1.15,2013-02-01 04:58:00,
2013-01-31 23:01:00,-9.1,-21.6,30.23,WNW,285,14.0,14.0,53,0.00,,,0.00,0,Wunderground v.1.15,2013-02-01 05:01:00,
2013-01-31 23:03:00,-9.1,-21.6,30.23,WNW,283,10.0,14.0,53,0.00,,,0.00,0,Wunderground v.1.15,2013-02-01 05:03:00,
2013-01-31 23:06:00,-9.1,-21.6,30.23,WNW,283,11.0,14.0,53,0.00,,,0.00,0,Wunderground v.1.15,2013-02-01 05:06:00,
2013-01-31 23:08:00,-9.2,-21.7,30.23,WNW,288,5.0,14.0,53,0.00,,,0.00,0,Wunderground v.1.15,2013-02-01 05:08:00,
2013-01-31 23:11:00,-9.2,-21.7,30.23,WNW,289,11.0,12.0,53,0.00,,,0.00,0,Wunderground v.1.15,2013-02-01 05:11:00,
2013-01-31 23:14:00,-9.1,-21.6,30.23,West,279,8.0,13.0,53,0.00,,,0.00,0,Wunderground v.1.15,2013-02-01 05:14:00,
2013-01-31 23:16:00,-9.2,-21.7,30.23,West,281,8.0,13.0,53,0.00,,,0.00,0,Wunderground v.1.15,2013-02-01 05:16:00,
2013-01-31 23:17:00,-9.2,-21.7,30.23,West,279,4.0,13.0,53,0.00,,,0.00,0,Wunderground v.1.15,2013-02-01 05:17:00,
2013-01-31 23:19:00,-9.3,-21.8,30.23,WNW,283,4.0,13.0,53,0.00,,,0.00,0,Wunderground v.1.15,2013-02-01 05:19:00,
2013-01-31 23:21:00,-9.3,-21.8,30.23,West,267,7.0,8.0,53,0.00,,,0.00,0,Wunderground v.1.15,2013-02-01 05:21:00,
2013-01-31 23:22:00,-9.3,-21.8,30.23,WNW,285,12.0,12.0,53,0.00,,,0.00,0,Wunderground v.1.15,2013-02-01 05:22:00,
2013-01-31 23:24:00,-9.2,-21.7,30.23,WNW,283,7.0,14.0,53,0.00,,,0.00,0,Wunderground v.1.15,2013-02-01 05:24:00,
2013-01-31 23:27:00,-9.3,-21.8,30.23,West,270,6.0,14.0,53,0.00,,,0.00,0,Wunderground v.1.15,2013-02-01 05:27:00,
2013-01-31 23:29:00,-9.4,-21.9,30.24,West,279,7.0,14.0,53,0.00,,,0.00,0,Wunderground v.1.15,2013-02-01 05:29:00,
2013-01-31 23:32:00,-9.3,-21.8,30.24,West,280,5.0,10.0,53,0.00,,,0.00,0,Wunderground v.1.15,2013-02-01 05:32:00,
2013-01-31 23:34:00,-9.4,-21.9,30.24,WNW,286,3.0,12.0,53,0.00,,,0.00,0,Wunderground v.1.15,2013-02-01 05:34:00,
2013-01-31 23:37:00,-9.4,-21.9,30.24,West,274,6.0,12.0,53,0.00,,,0.00,0,Wunderground v.1.15,2013-02-01 05:37:00,
2013-01-31 23:38:00,-9.4,-21.9,30.24,West,274,8.0,12.0,53,0.00,,,0.00,0,Wunderground v.1.15,2013-02-01 05:38:00,
2013-01-31 23:40:00,-9.4,-21.9,30.24,WNW,283,6.0,12.0,53,0.00,,,0.00,0,Wunderground v.1.15,2013-02-01 05:40:00,
2013-01-31 23:42:00,-9.5,-22.0,30.24,WNW,285,4.0,11.0,53,0.00,,,0.00,0,Wunderground v.1.15,2013-02-01 05:42:00,
2013-01-31 23:43:00,-9.5,-22.0,30.24,West,268,9.0,11.0,53,0.00,,,0.00,0,Wunderground v.1.15,2013-02-01 05:43:00,
2013-01-31 23:45:00,-9.4,-21.9,30.24,WNW,290,8.0,11.0,53,0.00,,,0.00,0,Wunderground v.1.15,2013-02-01 05:45:00,
2013-01-31 23:47:00,-9.6,-22.1,30.24,WNW,291,8.0,11.0,53,0.00,,,0.00,0,Wunderground v.1.15,2013-02-01 05:47:00,
2013-01-31 23:48:00,-9.6,-22.1,30.24,WNW,283,16.0,16.0,53,0.00,,,0.00,0,Wunderground v.1.15,2013-02-01 05:48:00,
2013-01-31 23:50:00,-9.5,-21.7,30.24,West,275,9.0,11.0,54,0.00,,,0.00,0,Wunderground v.1.15,2013-02-01 05:50:00,
2013-01-31 23:53:00,-9.6,-21.7,30.24,West,279,7.0,12.0,54,0.00,,,0.00,0,Wunderground v.1.15,2013-02-01 05:53:00,
2013-01-31 23:55:00,-9.5,-21.7,30.24,West,270,9.0,12.0,54,0.00,,,0.00,0,Wunderground v.1.15,2013-02-01 05:55:00,
2013-01-31 23:58:00,-9.7,-21.8,30.24,West,272,9.0,12.0,54,0.00,,,0.00,0,Wunderground v.1.15,2013-02-01 05:58:00,